| time (UTC) | temp F | wind direction | speed knots | gust knots | rain 1hr in | rain 24hr in | rain mn in | humidity % | barometer mb |
| 20260902034417 | 79 | 271 | 0.0 | 0.0 | 0.00 | 0.00 | 0.00 | 76 | 1021.2 |
| 20260902034316 | 79 | 271 | 0.0 | 0.0 | 0.00 | 0.00 | 0.00 | 76 | 1021.3 |
| 20260902034216 | 79 | 271 | 0.0 | 0.0 | 0.00 | 0.00 | 0.00 | 76 | 1021.2 |
| 20260902034117 | 79 | 269 | 0.0 | 0.0 | 0.00 | 0.00 | 0.00 | 76 | 1021.2 |
| 20260902034016 | 79 | 279 | 0.0 | 0.0 | 0.00 | 0.00 | 0.00 | 76 | 1021.2 |
| 20260902033916 | 79 | 270 | 0.0 | 0.0 | 0.00 | 0.00 | 0.00 | 76 | 1021.3 |
| 20260902033816 | 79 | 269 | 0.0 | 0.0 | 0.00 | 0.00 | 0.00 | 76 | 1021.1 |
| 20260902033716 | 79 | 269 | 0.0 | 0.0 | 0.00 | 0.00 | 0.00 | 76 | 1021.2 |
| 20260902033616 | 79 | 269 | 0.0 | 0.0 | 0.00 | 0.00 | 0.00 | 76 | 1021.2 |
| 20260902033518 | 79 | 270 | 0.0 | 0.0 | 0.00 | 0.00 | 0.00 | 76 | 1021.2 |
| 20260902033417 | 79 | 270 | 0.0 | 0.0 | 0.00 | 0.00 | 0.00 | 76 | 1021.1 |
| 20260902033318 | 79 | 270 | 0.0 | 0.0 | 0.00 | 0.00 | 0.00 | 76 | 1021.2 |
| 20260902033217 | 79 | 270 | 0.0 | 0.0 | 0.00 | 0.00 | 0.00 | 76 | 1021.2 |
| 20260902033114 | 79 | 271 | 0.0 | 0.0 | 0.00 | 0.00 | 0.00 | 76 | 1021.2 |
| 20260902033017 | 79 | 271 | 0.0 | 0.0 | 0.00 | 0.00 | 0.00 | 76 | 1021.1 |
| 20260902032915 | 79 | 271 | 0.0 | 0.0 | 0.00 | 0.00 | 0.00 | 76 | 1021.1 |
| 20260902032814 | 79 | 277 | 0.0 | 0.0 | 0.00 | 0.00 | 0.00 | 76 | 1021.3 |
| 20260902032708 | 79 | 277 | 0.0 | 0.0 | 0.00 | 0.00 | 0.00 | 76 | 1021.3 |
| 20260902032609 | 79 | 277 | 0.0 | 0.0 | 0.00 | 0.00 | 0.00 | 76 | 1021.2 |
| 20260902032509 | 79 | 259 | 0.0 | 0.0 | 0.00 | 0.00 | 0.00 | 76 | 1021.3 |
| 20260902032403 | 79 | 255 | 0.0 | 0.0 | 0.00 | 0.00 | 0.00 | 76 | 1021.3 |
| 20260902032305 | 79 | 269 | 0.0 | 0.0 | 0.00 | 0.00 | 0.00 | 76 | 1021.3 |
| 20260902032202 | 79 | 269 | 0.0 | 0.0 | 0.00 | 0.00 | 0.00 | 76 | 1021.3 |
| 20260902032102 | 79 | 269 | 0.0 | 0.0 | 0.00 | 0.00 | 0.00 | 76 | 1021.2 |
| 20260902032004 | 79 | 267 | 0.0 | 0.0 | 0.00 | 0.00 | 0.00 | 76 | 1021.2 |
| 20260902031858 | 79 | 267 | 0.0 | 0.0 | 0.00 | 0.00 | 0.00 | 76 | 1021.2 |
| 20260902031756 | 79 | 266 | 0.0 | 0.0 | 0.00 | 0.00 | 0.00 | 76 | 1021.2 |
| 20260902031657 | 79 | 267 | 0.0 | 0.0 | 0.00 | 0.00 | 0.00 | 76 | 1021.3 |
| 20260902031555 | 79 | 266 | 0.0 | 0.0 | 0.00 | 0.00 | 0.00 | 77 | 1021.2 |
| 20260902031453 | 79 | 267 | 0.0 | 0.0 | 0.00 | 0.00 | 0.00 | 77 | 1021.2 |
| 20260902031348 | 79 | 267 | 0.0 | 0.0 | 0.00 | 0.00 | 0.00 | 77 | 1021.2 |
| 20260902031247 | 79 | 267 | 0.0 | 0.0 | 0.00 | 0.00 | 0.00 | 77 | 1021.2 |
| 20260902031146 | 79 | 267 | 0.0 | 0.0 | 0.00 | 0.00 | 0.00 | 77 | 1021.2 |
| 20260902031047 | 79 | 268 | 0.0 | 0.0 | 0.00 | 0.00 | 0.00 | 76 | 1021.3 |
| 20260902030944 | 79 | 265 | 0.0 | 0.0 | 0.00 | 0.00 | 0.00 | 77 | 1021.3 |
| 20260902030845 | 79 | 264 | 0.0 | 0.0 | 0.00 | 0.00 | 0.00 | 77 | 1021.4 |
| 20260902030742 | 79 | 254 | 0.0 | 0.0 | 0.00 | 0.00 | 0.00 | 77 | 1021.4 |
| 20260902030644 | 79 | 254 | 0.0 | 0.0 | 0.00 | 0.00 | 0.00 | 77 | 1021.3 |
| 20260902030542 | 79 | 254 | 0.0 | 0.0 | 0.00 | 0.00 | 0.00 | 77 | 1021.4 |
| 20260902030439 | 79 | 254 | 0.0 | 0.0 | 0.00 | 0.00 | 0.00 | 77 | 1021.3 |
| 20260902030328 | 79 | 252 | 0.0 | 0.0 | 0.00 | 0.00 | 0.00 | 77 | 1021.3 |
| 20260902030229 | 79 | 252 | 0.0 | 0.0 | 0.00 | 0.00 | 0.00 | 77 | 1021.4 |
| 20260902030129 | 79 | 252 | 0.0 | 0.0 | 0.00 | 0.00 | 0.00 | 78 | 1021.5 |
| 20260902030029 | 79 | 226 | 0.0 | 0.0 | 0.00 | 0.00 | 0.00 | 77 | 1021.4 |
| 20260902025929 | 79 | 226 | 0.0 | 0.0 | 0.00 | 0.00 | 0.00 | 77 | 1021.4 |
| 20260902025827 | 79 | 225 | 0.0 | 0.0 | 0.00 | 0.00 | 0.00 | 77 | 1021.4 |
| 20260902025726 | 79 | 227 | 0.0 | 0.0 | 0.00 | 0.00 | 0.00 | 78 | 1021.4 |
| 20260902025626 | 79 | 281 | 0.0 | 0.0 | 0.00 | 0.00 | 0.00 | 77 | 1021.4 |
| 20260902025525 | 79 | 281 | 0.0 | 0.0 | 0.00 | 0.00 | 0.00 | 77 | 1021.4 |
| 20260902025423 | 79 | 281 | 0.0 | 0.0 | 0.00 | 0.00 | 0.00 | 77 | 1021.4 |
| 20260902025323 | 79 | 281 | 0.0 | 0.0 | 0.00 | 0.00 | 0.00 | 77 | 1021.3 |
| 20260902025220 | 79 | 269 | 0.0 | 0.0 | 0.00 | 0.00 | 0.00 | 77 | 1021.4 |
| 20260902025121 | 79 | 268 | 0.0 | 0.0 | 0.00 | 0.00 | 0.00 | 77 | 1021.4 |
| 20260902025018 | 79 | 268 | 0.0 | 0.0 | 0.00 | 0.00 | 0.00 | 77 | 1021.4 |
| 20260902024917 | 79 | 268 | 0.0 | 0.0 | 0.00 | 0.00 | 0.00 | 77 | 1021.4 |
| 20260902024807 | 80 | 268 | 0.0 | 0.0 | 0.00 | 0.00 | 0.00 | 77 | 1021.4 |
| 20260902024707 | 80 | 268 | 0.0 | 0.0 | 0.00 | 0.00 | 0.00 | 77 | 1021.4 |
| 20260902024607 | 80 | 268 | 0.0 | 0.0 | 0.00 | 0.00 | 0.00 | 77 | 1021.4 |
| 20260902024504 | 80 | 267 | 0.0 | 0.0 | 0.00 | 0.00 | 0.00 | 77 | 1021.4 |
| 20260902024405 | 79 | 259 | 0.0 | 0.0 | 0.00 | 0.00 | 0.00 | 77 | 1021.3 |
| 20260902024302 | 80 | 259 | 0.0 | 0.0 | 0.00 | 0.00 | 0.00 | 77 | 1021.3 |
| 20260902024204 | 80 | 259 | 0.0 | 0.0 | 0.00 | 0.00 | 0.00 | 77 | 1021.3 |
| 20260902024102 | 80 | 259 | 0.0 | 0.0 | 0.00 | 0.00 | 0.00 | 77 | 1021.2 |
| 20260902024001 | 80 | 259 | 0.0 | 0.0 | 0.00 | 0.00 | 0.00 | 77 | 1021.3 |
| 20260902023858 | 80 | 259 | 0.0 | 0.0 | 0.00 | 0.00 | 0.00 | 77 | 1021.3 |
| 20260902023757 | 79 | 259 | 0.0 | 0.0 | 0.00 | 0.00 | 0.00 | 77 | 1021.2 |
| 20260902023656 | 80 | 257 | 0.0 | 0.0 | 0.00 | 0.00 | 0.00 | 77 | 1021.2 |
| 20260902023555 | 80 | 257 | 0.0 | 0.0 | 0.00 | 0.00 | 0.00 | 77 | 1021.2 |
| 20260902023453 | 79 | 257 | 0.0 | 0.0 | 0.00 | 0.00 | 0.00 | 77 | 1021.3 |
| 20260902023351 | 79 | 256 | 0.0 | 0.0 | 0.00 | 0.00 | 0.00 | 77 | 1021.3 |
| 20260902023243 | 79 | 256 | 0.0 | 0.0 | 0.00 | 0.00 | 0.00 | 77 | 1021.3 |
| 20260902023140 | 79 | 252 | 0.0 | 0.0 | 0.00 | 0.00 | 0.00 | 77 | 1021.2 |
| 20260902023041 | 79 | 252 | 0.0 | 0.0 | 0.00 | 0.00 | 0.00 | 78 | 1021.3 |
| 20260902022940 | 79 | 253 | 0.0 | 0.0 | 0.00 | 0.00 | 0.00 | 78 | 1021.2 |
| 20260902022841 | 79 | 253 | 0.0 | 0.0 | 0.00 | 0.00 | 0.00 | 78 | 1021.2 |
| 20260902022738 | 79 | 253 | 0.0 | 0.0 | 0.00 | 0.00 | 0.00 | 77 | 1021.2 |
| 20260902022639 | 79 | 253 | 0.0 | 0.0 | 0.00 | 0.00 | 0.00 | 77 | 1021.2 |
| 20260902022539 | 80 | 253 | 0.0 | 0.0 | 0.00 | 0.00 | 0.00 | 78 | 1021.3 |
| 20260902022437 | 80 | 252 | 0.0 | 0.0 | 0.00 | 0.00 | 0.00 | 78 | 1021.2 |
| 20260902022335 | 79 | 252 | 0.0 | 0.0 | 0.00 | 0.00 | 0.00 | 78 | 1021.2 |
| 20260902022235 | 80 | 252 | 0.0 | 0.0 | 0.00 | 0.00 | 0.00 | 78 | 1021.2 |
| 20260902022132 | 80 | 252 | 0.0 | 0.0 | 0.00 | 0.00 | 0.00 | 77 | 1021.1 |
| 20260902022032 | 80 | 252 | 0.0 | 0.0 | 0.00 | 0.00 | 0.00 | 78 | 1021.1 |
| 20260902021931 | 80 | 252 | 0.0 | 0.0 | 0.00 | 0.00 | 0.00 | 78 | 1021.2 |
| 20260902021828 | 80 | 252 | 0.0 | 0.0 | 0.00 | 0.00 | 0.00 | 78 | 1021.1 |
| 20260902021719 | 80 | 253 | 0.0 | 0.0 | 0.00 | 0.00 | 0.00 | 77 | 1021.1 |
| 20260902021619 | 80 | 252 | 0.0 | 0.0 | 0.00 | 0.00 | 0.00 | 77 | 1021.1 |
| 20260902021518 | 80 | 253 | 0.0 | 0.0 | 0.00 | 0.00 | 0.00 | 77 | 1021.1 |
| 20260902021418 | 80 | 253 | 0.0 | 0.0 | 0.00 | 0.00 | 0.00 | 78 | 1021.1 |
| 20260902021319 | 80 | 253 | 0.0 | 0.0 | 0.00 | 0.00 | 0.00 | 77 | 1021.1 |
| 20260902021219 | 80 | 253 | 0.0 | 0.0 | 0.00 | 0.00 | 0.00 | 77 | 1021.2 |
| 20260902021117 | 80 | 252 | 0.0 | 0.0 | 0.00 | 0.00 | 0.00 | 77 | 1021.0 |
| 20260902021016 | 80 | 251 | 0.0 | 0.0 | 0.00 | 0.00 | 0.00 | 77 | 1021.0 |
| 20260902020915 | 80 | 248 | 0.0 | 0.0 | 0.00 | 0.00 | 0.00 | 77 | 1021.1 |
| 20260902020813 | 80 | 249 | 0.0 | 0.0 | 0.00 | 0.00 | 0.00 | 77 | 1021.0 |
| 20260902020706 | 80 | 249 | 0.0 | 0.0 | 0.00 | 0.00 | 0.00 | 77 | 1021.0 |
| 20260902020607 | 80 | 249 | 0.0 | 0.0 | 0.00 | 0.00 | 0.00 | 77 | 1021.0 |
| 20260902020506 | 80 | 249 | 0.0 | 0.0 | 0.00 | 0.00 | 0.00 | 77 | 1021.0 |
| 20260902020406 | 80 | 249 | 0.0 | 0.0 | 0.00 | 0.00 | 0.00 | 77 | 1021.0 |
| 20260902020306 | 80 | 249 | 0.0 | 0.0 | 0.00 | 0.00 | 0.00 | 76 | 1021.1 |
| 20260902020156 | 80 | 249 | 0.0 | 0.0 | 0.00 | 0.00 | 0.00 | 76 | 1021.0 |
| 20260902020057 | 80 | 249 | 0.0 | 0.0 | 0.00 | 0.00 | 0.00 | 76 | 1021.0 |
| 20260902015956 | 80 | 301 | 0.0 | 0.0 | 0.00 | 0.00 | 0.00 | 76 | 1021.0 |
| 20260902015856 | 80 | 301 | 0.0 | 0.0 | 0.00 | 0.00 | 0.00 | 76 | 1021.0 |
| 20260902015755 | 80 | 301 | 0.0 | 0.0 | 0.00 | 0.00 | 0.00 | 76 | 1021.0 |
| 20260902015650 | 80 | 306 | 0.0 | 0.0 | 0.00 | 0.00 | 0.00 | 75 | 1021.0 |
| 20260902015550 | 80 | 318 | 0.0 | 0.0 | 0.00 | 0.00 | 0.00 | 75 | 1020.9 |
| 20260902015448 | 80 | 329 | 0.0 | 0.0 | 0.00 | 0.00 | 0.00 | 75 | 1020.9 |
| 20260902015351 | 80 | 329 | 0.0 | 0.0 | 0.00 | 0.00 | 0.00 | 75 | 1020.9 |
| 20260902015248 | 80 | 329 | 0.0 | 0.0 | 0.00 | 0.00 | 0.00 | 75 | 1020.9 |
| 20260902015145 | 80 | 329 | 0.0 | 0.0 | 0.00 | 0.00 | 0.00 | 75 | 1020.9 |
| 20260902015042 | 80 | 329 | 0.0 | 0.0 | 0.00 | 0.00 | 0.00 | 75 | 1020.9 |
| 20260902014943 | 81 | 329 | 0.0 | 0.0 | 0.00 | 0.00 | 0.00 | 75 | 1020.9 |
| 20260902014842 | 81 | 329 | 0.0 | 0.0 | 0.00 | 0.00 | 0.00 | 75 | 1020.8 |
| 20260902014743 | 81 | 329 | 0.0 | 0.0 | 0.00 | 0.00 | 0.00 | 75 | 1020.8 |
| 20260902014634 | 81 | 329 | 0.0 | 0.0 | 0.00 | 0.00 | 0.00 | 75 | 1020.8 |
| 20260902014534 | 81 | 329 | 0.0 | 0.0 | 0.00 | 0.00 | 0.00 | 75 | 1020.7 |
| 20260902014432 | 81 | 329 | 0.0 | 0.0 | 0.00 | 0.00 | 0.00 | 75 | 1020.8 |
| 20260902014333 | 81 | 329 | 0.0 | 0.0 | 0.00 | 0.00 | 0.00 | 75 | 1020.8 |
| 20260902014233 | 81 | 329 | 0.0 | 0.0 | 0.00 | 0.00 | 0.00 | 75 | 1020.8 |
| 20260902014133 | 81 | 329 | 0.0 | 0.0 | 0.00 | 0.00 | 0.00 | 75 | 1020.7 |
| 20260902014030 | 81 | 329 | 0.0 | 0.0 | 0.00 | 0.00 | 0.00 | 75 | 1020.6 |
| 20260902013931 | 81 | 329 | 0.0 | 0.0 | 0.00 | 0.00 | 0.00 | 75 | 1020.6 |
| 20260902013828 | 81 | 329 | 0.0 | 0.0 | 0.00 | 0.00 | 0.00 | 75 | 1020.6 |
| 20260902013727 | 81 | 328 | 0.0 | 0.0 | 0.00 | 0.00 | 0.00 | 76 | 1020.7 |
| 20260902013626 | 81 | 328 | 0.0 | 0.0 | 0.00 | 0.00 | 0.00 | 76 | 1020.6 |
| 20260902013525 | 81 | 328 | 0.0 | 0.0 | 0.00 | 0.00 | 0.00 | 76 | 1020.7 |
| 20260902013424 | 81 | 328 | 0.0 | 0.0 | 0.00 | 0.00 | 0.00 | 76 | 1020.6 |
| 20260902013323 | 81 | 328 | 0.0 | 0.0 | 0.00 | 0.00 | 0.00 | 76 | 1020.7 |
| 20260902013220 | 82 | 328 | 0.0 | 0.0 | 0.00 | 0.00 | 0.00 | 76 | 1020.6 |
| 20260902013112 | 82 | 327 | 0.0 | 0.0 | 0.00 | 0.00 | 0.00 | 75 | 1020.7 |
| 20260902013011 | 82 | 327 | 0.0 | 0.0 | 0.00 | 0.00 | 0.00 | 75 | 1020.7 |
| 20260902012911 | 82 | 327 | 0.0 | 0.0 | 0.00 | 0.00 | 0.00 | 75 | 1020.6 |
| 20260902012811 | 82 | 327 | 0.0 | 0.0 | 0.00 | 0.00 | 0.00 | 75 | 1020.7 |
| 20260902012710 | 82 | 327 | 0.0 | 0.0 | 0.00 | 0.00 | 0.00 | 75 | 1020.7 |
| 20260902012605 | 82 | 327 | 0.0 | 0.0 | 0.00 | 0.00 | 0.00 | 74 | 1020.7 |
| 20260902012505 | 82 | 326 | 0.0 | 0.0 | 0.00 | 0.00 | 0.00 | 74 | 1020.7 |
| 20260902012404 | 82 | 326 | 0.0 | 0.0 | 0.00 | 0.00 | 0.00 | 74 | 1020.8 |
| 20260902012309 | 82 | 325 | 0.0 | 0.0 | 0.00 | 0.00 | 0.00 | 73 | 1020.7 |
| 20260902012205 | 82 | 324 | 0.0 | 0.0 | 0.00 | 0.00 | 0.00 | 73 | 1020.7 |
| 20260902012102 | 82 | 321 | 0.0 | 0.0 | 0.00 | 0.00 | 0.00 | 72 | 1020.6 |
| 20260902012002 | 82 | 313 | 0.0 | 0.0 | 0.00 | 0.00 | 0.00 | 72 | 1020.7 |
| 20260902011902 | 82 | 317 | 0.0 | 0.0 | 0.00 | 0.00 | 0.00 | 72 | 1020.6 |
| 20260902011801 | 82 | 319 | 0.0 | 0.0 | 0.00 | 0.00 | 0.00 | 72 | 1020.6 |
| 20260902011659 | 82 | 319 | 0.0 | 0.0 | 0.00 | 0.00 | 0.00 | 72 | 1020.6 |
| 20260902011555 | 82 | 321 | 0.0 | 0.0 | 0.00 | 0.00 | 0.00 | 71 | 1020.6 |
| 20260902011452 | 82 | 327 | 0.0 | 0.0 | 0.00 | 0.00 | 0.00 | 70 | 1020.6 |
| 20260902011353 | 82 | 329 | 0.0 | 0.0 | 0.00 | 0.00 | 0.00 | 70 | 1020.7 |
| 20260902011251 | 82 | 329 | 0.0 | 0.0 | 0.00 | 0.00 | 0.00 | 70 | 1020.6 |
| 20260902011149 | 82 | 330 | 0.0 | 0.0 | 0.00 | 0.00 | 0.00 | 70 | 1020.7 |
| 20260902011049 | 82 | 330 | 0.0 | 0.0 | 0.00 | 0.00 | 0.00 | 70 | 1020.7 |
| 20260902010947 | 82 | 330 | 0.0 | 0.0 | 0.00 | 0.00 | 0.00 | 70 | 1020.6 |
| 20260902010847 | 83 | 330 | 0.0 | 0.0 | 0.00 | 0.00 | 0.00 | 69 | 1020.5 |
| 20260902010745 | 83 | 330 | 0.0 | 0.0 | 0.00 | 0.00 | 0.00 | 69 | 1020.5 |
| 20260902010643 | 83 | 330 | 0.0 | 0.0 | 0.00 | 0.00 | 0.00 | 69 | 1020.5 |
| 20260902010542 | 83 | 330 | 0.0 | 0.0 | 0.00 | 0.00 | 0.00 | 69 | 1020.5 |
| 20260902010442 | 83 | 330 | 0.0 | 0.0 | 0.00 | 0.00 | 0.00 | 68 | 1020.6 |
| 20260902010340 | 83 | 330 | 0.0 | 0.0 | 0.00 | 0.00 | 0.00 | 68 | 1020.6 |
| 20260902010240 | 83 | 330 | 0.0 | 0.0 | 0.00 | 0.00 | 0.00 | 68 | 1020.6 |
| 20260902010137 | 83 | 330 | 0.0 | 0.0 | 0.00 | 0.00 | 0.00 | 68 | 1020.5 |
| 20260902010031 | 83 | 330 | 0.0 | 0.0 | 0.00 | 0.00 | 0.00 | 68 | 1020.5 |
| 20260902005931 | 83 | 330 | 0.0 | 0.0 | 0.00 | 0.00 | 0.00 | 68 | 1020.5 |
| 20260902005831 | 83 | 330 | 0.0 | 0.0 | 0.00 | 0.00 | 0.00 | 68 | 1020.5 |
| 20260902005730 | 83 | 330 | 0.0 | 0.0 | 0.00 | 0.00 | 0.00 | 67 | 1020.5 |
| 20260902005627 | 83 | 330 | 0.0 | 0.0 | 0.00 | 0.00 | 0.00 | 67 | 1020.5 |
| 20260902005527 | 83 | 330 | 0.0 | 0.0 | 0.00 | 0.00 | 0.00 | 67 | 1020.4 |
| 20260902005426 | 83 | 330 | 0.0 | 0.0 | 0.00 | 0.00 | 0.00 | 67 | 1020.4 |
| 20260902005325 | 83 | 330 | 0.0 | 0.0 | 0.00 | 0.00 | 0.00 | 67 | 1020.4 |
| 20260902005222 | 83 | 330 | 0.0 | 0.0 | 0.00 | 0.00 | 0.00 | 67 | 1020.5 |
| 20260902005121 | 83 | 330 | 0.0 | 0.0 | 0.00 | 0.00 | 0.00 | 66 | 1020.5 |
| 20260902005021 | 83 | 330 | 0.0 | 0.0 | 0.00 | 0.00 | 0.00 | 66 | 1020.4 |
| 20260902004919 | 83 | 330 | 0.0 | 0.0 | 0.00 | 0.00 | 0.00 | 66 | 1020.5 |
| 20260902004818 | 83 | 330 | 0.0 | 0.0 | 0.00 | 0.00 | 0.00 | 66 | 1020.4 |
| 20260902004717 | 83 | 330 | 0.0 | 0.0 | 0.00 | 0.00 | 0.00 | 66 | 1020.4 |
| 20260902004615 | 83 | 330 | 0.0 | 0.0 | 0.00 | 0.00 | 0.00 | 66 | 1020.4 |
| 20260902004508 | 83 | 330 | 0.0 | 0.0 | 0.00 | 0.00 | 0.00 | 65 | 1020.4 |
| 20260902004404 | 83 | 330 | 0.0 | 0.0 | 0.00 | 0.00 | 0.00 | 65 | 1020.4 |
| 20260902004303 | 83 | 330 | 0.0 | 0.0 | 0.00 | 0.00 | 0.00 | 66 | 1020.3 |
| 20260902004204 | 83 | 330 | 0.0 | 0.0 | 0.00 | 0.00 | 0.00 | 65 | 1020.3 |
| 20260902004104 | 83 | 330 | 0.0 | 0.0 | 0.00 | 0.00 | 0.00 | 65 | 1020.3 |
| 20260902004002 | 83 | 330 | 0.0 | 0.0 | 0.00 | 0.00 | 0.00 | 65 | 1020.3 |
| 20260902003902 | 83 | 330 | 0.0 | 0.0 | 0.00 | 0.00 | 0.00 | 65 | 1020.3 |
| 20260902003802 | 83 | 330 | 0.0 | 0.0 | 0.00 | 0.00 | 0.00 | 65 | 1020.3 |
| 20260902003701 | 83 | 330 | 0.0 | 0.0 | 0.00 | 0.00 | 0.00 | 65 | 1020.3 |
| 20260902003558 | 83 | 330 | 0.0 | 0.0 | 0.00 | 0.00 | 0.00 | 65 | 1020.3 |
| 20260902003458 | 83 | 330 | 0.0 | 0.0 | 0.00 | 0.00 | 0.00 | 65 | 1020.2 |
| 20260902003357 | 83 | 330 | 0.0 | 0.0 | 0.00 | 0.00 | 0.00 | 65 | 1020.4 |
| 20260902003256 | 83 | 330 | 0.0 | 0.0 | 0.00 | 0.00 | 0.00 | 65 | 1020.3 |
| 20260902003155 | 83 | 330 | 0.0 | 0.0 | 0.00 | 0.00 | 0.00 | 65 | 1020.3 |
| 20260902003052 | 83 | 330 | 0.0 | 0.0 | 0.00 | 0.00 | 0.00 | 65 | 1020.3 |
| 20260902002947 | 83 | 330 | 0.0 | 0.0 | 0.00 | 0.00 | 0.00 | 65 | 1020.3 |
| 20260902002847 | 83 | 330 | 0.0 | 0.0 | 0.00 | 0.00 | 0.00 | 65 | 1020.3 |
| 20260902002746 | 83 | 330 | 0.0 | 0.0 | 0.00 | 0.00 | 0.00 | 65 | 1020.3 |
| 20260902002645 | 83 | 330 | 0.0 | 0.0 | 0.00 | 0.00 | 0.00 | 65 | 1020.4 |
| 20260902002543 | 83 | 330 | 0.0 | 0.0 | 0.00 | 0.00 | 0.00 | 65 | 1020.4 |
| 20260902002444 | 83 | 330 | 0.0 | 0.0 | 0.00 | 0.00 | 0.00 | 65 | 1020.3 |
| 20260902002339 | 83 | 330 | 0.0 | 0.0 | 0.00 | 0.00 | 0.00 | 65 | 1020.3 |
| 20260902002241 | 83 | 330 | 0.0 | 0.0 | 0.00 | 0.00 | 0.00 | 65 | 1020.3 |
| 20260902002137 | 83 | 330 | 0.0 | 0.0 | 0.00 | 0.00 | 0.00 | 65 | 1020.3 |
| 20260902002037 | 83 | 330 | 0.0 | 0.0 | 0.00 | 0.00 | 0.00 | 65 | 1020.4 |
| 20260902001936 | 83 | 330 | 0.0 | 0.0 | 0.00 | 0.00 | 0.00 | 65 | 1020.3 |
| 20260902001836 | 83 | 330 | 0.0 | 0.0 | 0.00 | 0.00 | 0.00 | 65 | 1020.3 |
| 20260902001732 | 83 | 330 | 0.0 | 0.0 | 0.00 | 0.00 | 0.00 | 65 | 1020.4 |
| 20260902001633 | 83 | 330 | 0.0 | 0.0 | 0.00 | 0.00 | 0.00 | 65 | 1020.4 |
| 20260902001531 | 83 | 330 | 0.0 | 0.0 | 0.00 | 0.00 | 0.00 | 65 | 1020.5 |
| 20260902001425 | 83 | 330 | 0.0 | 0.0 | 0.00 | 0.00 | 0.00 | 65 | 1020.4 |
| 20260902001325 | 83 | 330 | 0.0 | 0.0 | 0.00 | 0.00 | 0.00 | 65 | 1020.4 |
| 20260902001225 | 83 | 330 | 0.0 | 0.0 | 0.00 | 0.00 | 0.00 | 65 | 1020.4 |
| 20260902001123 | 83 | 330 | 0.0 | 0.0 | 0.00 | 0.00 | 0.00 | 65 | 1020.4 |
| 20260902001021 | 83 | 330 | 0.0 | 0.0 | 0.00 | 0.00 | 0.00 | 65 | 1020.3 |
| 20260902000921 | 83 | 330 | 0.0 | 0.0 | 0.00 | 0.00 | 0.00 | 65 | 1020.4 |
| 20260902000819 | 84 | 330 | 0.0 | 0.0 | 0.00 | 0.00 | 0.00 | 65 | 1020.4 |
| 20260902000719 | 83 | 330 | 0.0 | 0.0 | 0.00 | 0.00 | 0.00 | 65 | 1020.4 |
| 20260902000617 | 84 | 330 | 0.0 | 0.0 | 0.00 | 0.00 | 0.00 | 65 | 1020.4 |
| 20260902000514 | 84 | 330 | 0.0 | 0.0 | 0.00 | 0.00 | 0.00 | 65 | 1020.4 |
| 20260902000409 | 84 | 330 | 0.0 | 0.0 | 0.00 | 0.00 | 0.00 | 65 | 1020.4 |
| 20260902000307 | 84 | 330 | 0.0 | 0.0 | 0.00 | 0.00 | 0.00 | 65 | 1020.4 |
| 20260902000211 | 84 | 330 | 0.0 | 0.0 | 0.00 | 0.00 | 0.00 | 65 | 1020.5 |
| 20260902000107 | 84 | 330 | 0.0 | 0.0 | 0.00 | 0.00 | 0.00 | 65 | 1020.4 |
| 20260902000009 | 84 | 330 | 0.0 | 0.0 | 0.00 | 0.00 | 0.00 | 65 | 1020.4 |
| 20260901235902 | 84 | 330 | 0.0 | 0.0 | 0.00 | 0.00 | 0.00 | 65 | 1020.5 |
| 20260901235802 | 84 | 330 | 0.0 | 0.0 | 0.00 | 0.00 | 0.00 | 65 | 1020.4 |
| 20260901235703 | 84 | 330 | 0.0 | 0.0 | 0.00 | 0.00 | 0.00 | 65 | 1020.4 |
| 20260901235601 | 84 | 330 | 0.0 | 0.0 | 0.00 | 0.00 | 0.00 | 65 | 1020.5 |
| 20260901235459 | 84 | 330 | 0.0 | 0.0 | 0.00 | 0.00 | 0.00 | 65 | 1020.4 |
| 20260901235358 | 84 | 330 | 0.0 | 0.0 | 0.00 | 0.00 | 0.00 | 65 | 1020.4 |
| 20260901235258 | 84 | 330 | 0.0 | 0.0 | 0.00 | 0.00 | 0.00 | 65 | 1020.6 |
| 20260901235156 | 84 | 330 | 0.0 | 0.0 | 0.00 | 0.00 | 0.00 | 65 | 1020.5 |
| 20260901235054 | 84 | 330 | 0.0 | 0.0 | 0.00 | 0.00 | 0.00 | 65 | 1020.5 |
| 20260901234952 | 84 | 330 | 0.0 | 0.0 | 0.00 | 0.00 | 0.00 | 65 | 1020.5 |
| 20260901234852 | 84 | 330 | 0.0 | 0.0 | 0.00 | 0.00 | 0.00 | 65 | 1020.5 |
| 20260901234751 | 84 | 330 | 0.0 | 0.0 | 0.00 | 0.00 | 0.00 | 65 | 1020.5 |
| 20260901234647 | 84 | 330 | 0.0 | 0.0 | 0.00 | 0.00 | 0.00 | 65 | 1020.5 |
| 20260901234549 | 84 | 330 | 0.0 | 0.0 | 0.00 | 0.00 | 0.00 | 65 | 1020.5 |
| 20260901234447 | 84 | 330 | 0.0 | 0.0 | 0.00 | 0.00 | 0.00 | 65 | 1020.4 |
| 20260901234339 | 84 | 330 | 0.0 | 0.0 | 0.00 | 0.00 | 0.00 | 65 | 1020.5 |
| 20260901234241 | 84 | 330 | 0.0 | 0.0 | 0.00 | 0.00 | 0.00 | 65 | 1020.5 |
| 20260901234140 | 84 | 330 | 0.0 | 0.0 | 0.00 | 0.00 | 0.00 | 65 | 1020.5 |
| 20260901234039 | 85 | 330 | 0.0 | 0.0 | 0.00 | 0.00 | 0.00 | 65 | 1020.4 |
| 20260901233937 | 85 | 330 | 0.0 | 0.0 | 0.00 | 0.00 | 0.00 | 65 | 1020.5 |
| 20260901233832 | 85 | 330 | 0.0 | 0.0 | 0.00 | 0.00 | 0.00 | 65 | 1020.4 |
| 20260901233732 | 85 | 330 | 0.0 | 0.0 | 0.00 | 0.00 | 0.00 | 65 | 1020.5 |
| 20260901233633 | 85 | 330 | 0.0 | 0.0 | 0.00 | 0.00 | 0.00 | 65 | 1020.4 |
| 20260901233533 | 85 | 330 | 0.0 | 0.0 | 0.00 | 0.00 | 0.00 | 65 | 1020.5 |
| 20260901233430 | 85 | 330 | 0.0 | 0.0 | 0.00 | 0.00 | 0.00 | 66 | 1020.5 |
| 20260901233330 | 85 | 330 | 0.0 | 0.0 | 0.00 | 0.00 | 0.00 | 65 | 1020.5 |
| 20260901233230 | 85 | 330 | 0.0 | 0.0 | 0.00 | 0.00 | 0.00 | 65 | 1020.5 |
| 20260901233126 | 85 | 330 | 0.0 | 0.0 | 0.00 | 0.00 | 0.00 | 65 | 1020.5 |
| 20260901233026 | 85 | 330 | 0.0 | 0.0 | 0.00 | 0.00 | 0.00 | 65 | 1020.5 |
| 20260901232924 | 85 | 330 | 0.0 | 0.0 | 0.00 | 0.00 | 0.00 | 65 | 1020.5 |
| 20260901232818 | 85 | 330 | 0.0 | 0.0 | 0.00 | 0.00 | 0.00 | 65 | 1020.5 |
| 20260901232719 | 85 | 330 | 0.0 | 0.0 | 0.00 | 0.00 | 0.00 | 65 | 1020.5 |
| 20260901232618 | 85 | 330 | 0.0 | 0.0 | 0.00 | 0.00 | 0.00 | 65 | 1020.5 |
| 20260901232517 | 85 | 330 | 0.0 | 0.0 | 0.00 | 0.00 | 0.00 | 65 | 1020.5 |
| 20260901232414 | 85 | 330 | 0.0 | 0.0 | 0.00 | 0.00 | 0.00 | 65 | 1020.5 |
| 20260901232314 | 85 | 330 | 0.0 | 0.0 | 0.00 | 0.00 | 0.00 | 65 | 1020.6 |
| 20260901232213 | 85 | 330 | 0.0 | 0.0 | 0.00 | 0.00 | 0.00 | 65 | 1020.5 |
| 20260901232112 | 85 | 330 | 0.0 | 0.0 | 0.00 | 0.00 | 0.00 | 65 | 1020.6 |
| 20260901232011 | 85 | 330 | 0.0 | 0.0 | 0.00 | 0.00 | 0.00 | 65 | 1020.6 |
| 20260901231909 | 85 | 330 | 0.0 | 0.0 | 0.00 | 0.00 | 0.00 | 65 | 1020.7 |
| 20260901231804 | 85 | 330 | 0.0 | 0.0 | 0.00 | 0.00 | 0.00 | 65 | 1020.6 |
| 20260901231702 | 85 | 330 | 0.0 | 0.0 | 0.00 | 0.00 | 0.00 | 65 | 1020.7 |
| 20260901231604 | 85 | 330 | 0.0 | 0.0 | 0.00 | 0.00 | 0.00 | 65 | 1020.6 |
| 20260901231502 | 85 | 330 | 0.0 | 0.0 | 0.00 | 0.00 | 0.00 | 65 | 1020.7 |
| 20260901231402 | 85 | 330 | 0.0 | 0.0 | 0.00 | 0.00 | 0.00 | 65 | 1020.7 |
| 20260901231255 | 85 | 330 | 0.0 | 0.0 | 0.00 | 0.00 | 0.00 | 65 | 1020.8 |
| 20260901231156 | 85 | 330 | 0.0 | 0.0 | 0.00 | 0.00 | 0.00 | 65 | 1020.8 |
| 20260901231056 | 85 | 330 | 0.0 | 0.0 | 0.00 | 0.00 | 0.00 | 65 | 1020.8 |
| 20260901230955 | 85 | 330 | 0.0 | 0.0 | 0.00 | 0.00 | 0.00 | 65 | 1020.7 |
| 20260901230853 | 85 | 330 | 0.0 | 0.0 | 0.00 | 0.00 | 0.00 | 65 | 1020.8 |
| 20260901230752 | 85 | 330 | 0.0 | 0.0 | 0.00 | 0.00 | 0.00 | 64 | 1020.8 |
| 20260901230651 | 86 | 330 | 0.0 | 0.0 | 0.00 | 0.00 | 0.00 | 64 | 1020.9 |
| 20260901230550 | 86 | 330 | 0.0 | 0.0 | 0.00 | 0.00 | 0.00 | 64 | 1020.8 |
| 20260901230448 | 86 | 330 | 0.0 | 0.0 | 0.00 | 0.00 | 0.00 | 64 | 1020.8 |
| 20260901230348 | 86 | 330 | 0.0 | 0.0 | 0.00 | 0.00 | 0.00 | 64 | 1020.8 |
| 20260901230245 | 86 | 330 | 0.0 | 0.0 | 0.00 | 0.00 | 0.00 | 64 | 1020.9 |
| 20260901230145 | 86 | 330 | 0.0 | 0.0 | 0.00 | 0.00 | 0.00 | 64 | 1020.9 |
| 20260901230042 | 86 | 330 | 0.0 | 0.0 | 0.00 | 0.00 | 0.00 | 64 | 1020.9 |
| 20260901225943 | 86 | 330 | 0.0 | 0.0 | 0.00 | 0.00 | 0.00 | 64 | 1020.9 |
| 20260901225840 | 86 | 330 | 0.0 | 0.0 | 0.00 | 0.00 | 0.00 | 64 | 1020.9 |
| 20260901225735 | 86 | 330 | 0.0 | 0.0 | 0.00 | 0.00 | 0.00 | 63 | 1020.9 |
| 20260901225634 | 86 | 330 | 0.0 | 0.0 | 0.00 | 0.00 | 0.00 | 63 | 1020.9 |
| 20260901225535 | 86 | 330 | 0.0 | 0.0 | 0.00 | 0.00 | 0.00 | 63 | 1020.8 |
| 20260901225432 | 86 | 330 | 0.0 | 0.0 | 0.00 | 0.00 | 0.00 | 63 | 1020.8 |
| 20260901225331 | 86 | 330 | 0.0 | 0.0 | 0.00 | 0.00 | 0.00 | 64 | 1020.7 |
| 20260901225231 | 86 | 330 | 0.0 | 0.0 | 0.00 | 0.00 | 0.00 | 63 | 1020.8 |
| 20260901225129 | 86 | 330 | 0.0 | 0.0 | 0.00 | 0.00 | 0.00 | 63 | 1020.7 |
| 20260901225029 | 86 | 330 | 0.0 | 0.0 | 0.00 | 0.00 | 0.00 | 63 | 1020.7 |
| 20260901224927 | 86 | 330 | 0.0 | 0.0 | 0.00 | 0.00 | 0.00 | 64 | 1020.6 |
| 20260901224825 | 86 | 330 | 0.0 | 0.0 | 0.00 | 0.00 | 0.00 | 64 | 1020.7 |
| 20260901224725 | 86 | 330 | 0.0 | 0.0 | 0.00 | 0.00 | 0.00 | 64 | 1020.7 |
| 20260901224622 | 86 | 330 | 0.0 | 0.0 | 0.00 | 0.00 | 0.00 | 64 | 1020.7 |
| 20260901224521 | 86 | 330 | 0.0 | 0.0 | 0.00 | 0.00 | 0.00 | 64 | 1020.7 |
| 20260901224421 | 86 | 330 | 0.0 | 0.0 | 0.00 | 0.00 | 0.00 | 64 | 1020.6 |
| 20260901224318 | 86 | 330 | 0.0 | 0.0 | 0.00 | 0.00 | 0.00 | 64 | 1020.6 |
| 20260901224209 | 86 | 330 | 0.0 | 0.0 | 0.00 | 0.00 | 0.00 | 64 | 1020.6 |
| 20260901224107 | 86 | 330 | 0.0 | 0.0 | 0.00 | 0.00 | 0.00 | 65 | 1020.7 |
| 20260901224008 | 86 | 330 | 0.0 | 0.0 | 0.00 | 0.00 | 0.00 | 65 | 1020.7 |
| 20260901223907 | 86 | 330 | 0.0 | 0.0 | 0.00 | 0.00 | 0.00 | 65 | 1020.7 |
| 20260901223809 | 87 | 330 | 0.0 | 0.0 | 0.00 | 0.00 | 0.00 | 65 | 1020.5 |
| 20260901223705 | 87 | 330 | 0.0 | 0.0 | 0.00 | 0.00 | 0.00 | 63 | 1020.6 |
| 20260901223601 | 87 | 330 | 0.0 | 0.0 | 0.00 | 0.00 | 0.00 | 63 | 1020.6 |
| 20260901223503 | 87 | 330 | 0.0 | 0.0 | 0.00 | 0.00 | 0.00 | 63 | 1020.6 |
| 20260901223403 | 87 | 330 | 0.0 | 0.0 | 0.00 | 0.00 | 0.00 | 62 | 1020.7 |
| 20260901223303 | 87 | 330 | 0.0 | 0.0 | 0.00 | 0.00 | 0.00 | 63 | 1020.6 |
| 20260901223200 | 87 | 330 | 0.0 | 0.0 | 0.00 | 0.00 | 0.00 | 63 | 1020.7 |
| 20260901223101 | 87 | 330 | 0.0 | 0.0 | 0.00 | 0.00 | 0.00 | 63 | 1020.6 |
| 20260901222957 | 87 | 330 | 0.0 | 0.0 | 0.00 | 0.00 | 0.00 | 63 | 1020.6 |
| 20260901222859 | 87 | 330 | 0.0 | 0.0 | 0.00 | 0.00 | 0.00 | 64 | 1020.7 |
| 20260901222757 | 87 | 330 | 0.0 | 0.0 | 0.00 | 0.00 | 0.00 | 63 | 1020.6 |
| 20260901222650 | 87 | 330 | 0.0 | 0.0 | 0.00 | 0.00 | 0.00 | 63 | 1020.6 |
| 20260901222550 | 87 | 330 | 0.0 | 0.0 | 0.00 | 0.00 | 0.00 | 65 | 1020.6 |
| 20260901222451 | 87 | 330 | 0.0 | 0.0 | 0.00 | 0.00 | 0.00 | 64 | 1020.7 |
| 20260901222349 | 87 | 330 | 0.0 | 0.0 | 0.00 | 0.00 | 0.00 | 63 | 1020.6 |
| 20260901222246 | 87 | 330 | 0.0 | 0.0 | 0.00 | 0.00 | 0.00 | 63 | 1020.6 |
| 20260901222142 | 87 | 330 | 0.0 | 0.0 | 0.00 | 0.00 | 0.00 | 62 | 1020.6 |
| 20260901222041 | 87 | 330 | 0.0 | 0.0 | 0.00 | 0.00 | 0.00 | 62 | 1020.6 |
| 20260901221940 | 87 | 330 | 0.0 | 0.0 | 0.00 | 0.00 | 0.00 | 62 | 1020.6 |
| 20260901221841 | 87 | 330 | 0.0 | 0.0 | 0.00 | 0.00 | 0.00 | 62 | 1020.6 |
| 20260901221740 | 87 | 330 | 0.0 | 0.0 | 0.00 | 0.00 | 0.00 | 62 | 1020.6 |
| 20260901221637 | 88 | 330 | 0.0 | 0.0 | 0.00 | 0.00 | 0.00 | 62 | 1020.5 |
| 20260901221539 | 88 | 330 | 0.0 | 0.0 | 0.00 | 0.00 | 0.00 | 62 | 1020.5 |
| 20260901221438 | 88 | 330 | 0.0 | 0.0 | 0.00 | 0.00 | 0.00 | 61 | 1020.5 |
| 20260901221336 | 88 | 330 | 0.0 | 0.0 | 0.00 | 0.00 | 0.00 | 62 | 1020.6 |
| 20260901221234 | 88 | 330 | 0.0 | 0.0 | 0.00 | 0.00 | 0.00 | 63 | 1020.6 |
| 20260901221126 | 88 | 330 | 0.0 | 0.0 | 0.00 | 0.00 | 0.00 | 63 | 1020.6 |
| 20260901221023 | 88 | 330 | 0.0 | 0.0 | 0.00 | 0.00 | 0.00 | 62 | 1020.6 |
| 20260901220924 | 88 | 330 | 0.0 | 0.0 | 0.00 | 0.00 | 0.00 | 64 | 1020.5 |
| 20260901220824 | 88 | 330 | 0.0 | 0.0 | 0.00 | 0.00 | 0.00 | 62 | 1020.5 |
| 20260901220725 | 88 | 330 | 0.0 | 0.0 | 0.00 | 0.00 | 0.00 | 62 | 1020.6 |
| 20260901220622 | 88 | 330 | 0.0 | 0.0 | 0.00 | 0.00 | 0.00 | 63 | 1020.5 |
| 20260901220522 | 88 | 330 | 0.0 | 0.0 | 0.00 | 0.00 | 0.00 | 61 | 1020.6 |
| 20260901220419 | 88 | 330 | 0.0 | 0.0 | 0.00 | 0.00 | 0.00 | 61 | 1020.5 |
| 20260901220321 | 88 | 330 | 0.0 | 0.0 | 0.00 | 0.00 | 0.00 | 61 | 1020.5 |
| 20260901220218 | 88 | 330 | 0.0 | 0.0 | 0.00 | 0.00 | 0.00 | 60 | 1020.5 |
| 20260901220119 | 88 | 330 | 0.0 | 0.0 | 0.00 | 0.00 | 0.00 | 60 | 1020.5 |
| 20260901220016 | 88 | 330 | 0.0 | 0.0 | 0.00 | 0.00 | 0.00 | 62 | 1020.4 |
| 20260901215916 | 89 | 330 | 0.0 | 0.0 | 0.00 | 0.00 | 0.00 | 60 | 1020.5 |
| 20260901215816 | 89 | 330 | 0.0 | 0.0 | 0.00 | 0.00 | 0.00 | 60 | 1020.5 |
| 20260901215716 | 89 | 330 | 0.0 | 0.0 | 0.00 | 0.00 | 0.00 | 60 | 1020.6 |
| 20260901215615 | 88 | 330 | 0.0 | 0.0 | 0.00 | 0.00 | 0.00 | 60 | 1020.6 |
| 20260901215515 | 89 | 330 | 0.0 | 0.0 | 0.00 | 0.00 | 0.00 | 60 | 1020.6 |
| 20260901215414 | 89 | 330 | 0.0 | 0.0 | 0.00 | 0.00 | 0.00 | 63 | 1020.6 |
| 20260901215315 | 89 | 330 | 0.0 | 0.0 | 0.00 | 0.00 | 0.00 | 61 | 1020.5 |
| 20260901215215 | 89 | 330 | 0.0 | 0.0 | 0.00 | 0.00 | 0.00 | 60 | 1020.6 |
| 20260901215114 | 89 | 330 | 0.0 | 0.0 | 0.00 | 0.00 | 0.00 | 62 | 1020.6 |
| 20260901215012 | 89 | 330 | 0.0 | 0.0 | 0.00 | 0.00 | 0.00 | 61 | 1020.6 |
| 20260901214912 | 89 | 330 | 0.0 | 0.0 | 0.00 | 0.00 | 0.00 | 62 | 1020.6 |
| 20260901214811 | 89 | 330 | 0.0 | 0.0 | 0.00 | 0.00 | 0.00 | 63 | 1020.6 |
| 20260901214708 | 89 | 330 | 0.0 | 0.0 | 0.00 | 0.00 | 0.00 | 62 | 1020.6 |
| 20260901214608 | 89 | 330 | 0.0 | 0.0 | 0.00 | 0.00 | 0.00 | 62 | 1020.5 |
| 20260901214507 | 89 | 330 | 0.0 | 0.0 | 0.00 | 0.00 | 0.00 | 63 | 1020.5 |
| 20260901214403 | 89 | 330 | 0.0 | 0.0 | 0.00 | 0.00 | 0.00 | 61 | 1020.5 |
| 20260901214305 | 89 | 330 | 0.0 | 0.0 | 0.00 | 0.00 | 0.00 | 63 | 1020.5 |
| 20260901214203 | 89 | 330 | 0.0 | 0.0 | 0.00 | 0.00 | 0.00 | 61 | 1020.6 |
| 20260901214105 | 88 | 330 | 0.0 | 0.0 | 0.00 | 0.00 | 0.00 | 60 | 1020.5 |
| 20260901214005 | 88 | 330 | 0.0 | 0.0 | 0.00 | 0.00 | 0.00 | 60 | 1020.5 |
| 20260901213859 | 88 | 329 | 0.0 | 0.0 | 0.00 | 0.00 | 0.00 | 61 | 1020.5 |
| 20260901213757 | 88 | 329 | 0.0 | 0.0 | 0.00 | 0.00 | 0.00 | 61 | 1020.5 |
| 20260901213657 | 88 | 329 | 0.0 | 0.0 | 0.00 | 0.00 | 0.00 | 63 | 1020.5 |
| 20260901213559 | 88 | 329 | 0.0 | 0.0 | 0.00 | 0.00 | 0.00 | 63 | 1020.5 |
| 20260901213458 | 88 | 329 | 0.0 | 0.0 | 0.00 | 0.00 | 0.00 | 61 | 1020.5 |
| 20260901213353 | 88 | 329 | 0.0 | 0.0 | 0.00 | 0.00 | 0.00 | 61 | 1020.5 |
| 20260901213252 | 88 | 329 | 0.0 | 0.0 | 0.00 | 0.00 | 0.00 | 61 | 1020.5 |
| 20260901213151 | 88 | 329 | 0.0 | 0.0 | 0.00 | 0.00 | 0.00 | 61 | 1020.5 |
| 20260901213052 | 88 | 329 | 0.0 | 0.0 | 0.00 | 0.00 | 0.00 | 61 | 1020.6 |
| 20260901212953 | 88 | 329 | 0.0 | 0.0 | 0.00 | 0.00 | 0.00 | 63 | 1020.6 |
| 20260901212845 | 88 | 329 | 0.0 | 0.0 | 0.00 | 0.00 | 0.00 | 63 | 1020.6 |
| 20260901212746 | 88 | 329 | 0.0 | 0.0 | 0.00 | 0.00 | 0.00 | 62 | 1020.6 |
| 20260901212647 | 88 | 329 | 0.0 | 0.0 | 0.00 | 0.00 | 0.00 | 61 | 1020.6 |
| 20260901212546 | 88 | 321 | 0.0 | 0.0 | 0.00 | 0.00 | 0.00 | 61 | 1020.7 |
| 20260901212446 | 88 | 313 | 0.0 | 0.0 | 0.00 | 0.00 | 0.00 | 62 | 1020.6 |
| 20260901212347 | 88 | 290 | 0.0 | 0.0 | 0.00 | 0.00 | 0.00 | 61 | 1020.6 |
| 20260901212244 | 88 | 290 | 0.0 | 0.0 | 0.00 | 0.00 | 0.00 | 63 | 1020.7 |
| 20260901212143 | 88 | 290 | 0.0 | 0.0 | 0.00 | 0.00 | 0.00 | 62 | 1020.6 |
| 20260901212042 | 88 | 290 | 0.0 | 0.0 | 0.00 | 0.00 | 0.00 | 61 | 1020.7 |
| 20260901211943 | 88 | 288 | 0.0 | 0.0 | 0.00 | 0.00 | 0.00 | 62 | 1020.7 |
| 20260901211839 | 88 | 285 | 0.0 | 0.0 | 0.00 | 0.00 | 0.00 | 63 | 1020.7 |
| 20260901211739 | 88 | 13 | 0.0 | 0.0 | 0.00 | 0.00 | 0.00 | 63 | 1020.7 |
| 20260901211636 | 88 | 13 | 0.0 | 0.0 | 0.00 | 0.00 | 0.00 | 62 | 1020.7 |
| 20260901211537 | 88 | 13 | 0.0 | 0.0 | 0.00 | 0.00 | 0.00 | 63 | 1020.8 |
| 20260901211436 | 88 | 13 | 0.0 | 0.0 | 0.00 | 0.00 | 0.00 | 62 | 1020.7 |
| 20260901211335 | 88 | 13 | 0.0 | 0.0 | 0.00 | 0.00 | 0.00 | 62 | 1020.8 |
| 20260901211232 | 88 | 12 | 0.0 | 0.0 | 0.00 | 0.00 | 0.00 | 62 | 1020.7 |
| 20260901211130 | 87 | 13 | 0.0 | 0.0 | 0.00 | 0.00 | 0.00 | 63 | 1020.8 |
| 20260901211030 | 88 | 9 | 0.0 | 0.0 | 0.00 | 0.00 | 0.00 | 62 | 1020.8 |
| 20260901210930 | 88 | 10 | 0.0 | 0.0 | 0.00 | 0.00 | 0.00 | 64 | 1020.8 |
| 20260901210831 | 87 | 40 | 0.0 | 3.5 | 0.00 | 0.00 | 0.00 | 62 | 1020.8 |
| 20260901210731 | 88 | 40 | 0.0 | 3.5 | 0.00 | 0.00 | 0.00 | 62 | 1020.8 |
| 20260901210630 | 88 | 42 | 0.0 | 3.5 | 0.00 | 0.00 | 0.00 | 63 | 1020.8 |
| 20260901210529 | 88 | 335 | 0.0 | 3.5 | 0.00 | 0.00 | 0.00 | 64 | 1020.8 |
| 20260901210429 | 88 | 334 | 0.0 | 3.5 | 0.00 | 0.00 | 0.00 | 65 | 1020.8 |
| 20260901210326 | 87 | 334 | 0.0 | 3.5 | 0.00 | 0.00 | 0.00 | 62 | 1020.8 |
| 20260901210225 | 87 | 334 | 0.0 | 3.5 | 0.00 | 0.00 | 0.00 | 61 | 1020.8 |
| 20260901210125 | 87 | 334 | 0.0 | 3.5 | 0.00 | 0.00 | 0.00 | 62 | 1020.8 |
| 20260901210022 | 87 | 334 | 0.0 | 3.5 | 0.00 | 0.00 | 0.00 | 63 | 1020.8 |
| 20260901205923 | 87 | 341 | 0.0 | 3.5 | 0.00 | 0.00 | 0.00 | 62 | 1020.8 |
| 20260901205821 | 87 | 333 | 0.0 | 3.5 | 0.00 | 0.00 | 0.00 | 62 | 1020.9 |
| 20260901205719 | 87 | 330 | 0.0 | 1.7 | 0.00 | 0.00 | 0.00 | 63 | 1020.8 |
| 20260901205616 | 87 | 336 | 0.0 | 0.0 | 0.00 | 0.00 | 0.00 | 62 | 1020.8 |
| 20260901205516 | 88 | 344 | 0.0 | 0.0 | 0.00 | 0.00 | 0.00 | 63 | 1020.9 |
| 20260901205417 | 88 | 328 | 0.0 | 0.0 | 0.00 | 0.00 | 0.00 | 63 | 1020.9 |
| 20260901205316 | 88 | 25 | 0.0 | 0.0 | 0.00 | 0.00 | 0.00 | 62 | 1020.8 |
| 20260901205217 | 88 | 25 | 0.0 | 0.0 | 0.00 | 0.00 | 0.00 | 65 | 1020.9 |
| 20260901205112 | 88 | 355 | 0.0 | 0.0 | 0.00 | 0.00 | 0.00 | 63 | 1021.0 |
| 20260901205010 | 88 | 0 | 0.0 | 0.0 | 0.00 | 0.00 | 0.00 | 64 | 1020.9 |
| 20260901204911 | 88 | 5 | 0.0 | 0.0 | 0.00 | 0.00 | 0.00 | 66 | 1020.9 |
| 20260901204811 | 88 | 331 | 0.0 | 0.0 | 0.00 | 0.00 | 0.00 | 64 | 1020.9 |
| 20260901204710 | 88 | 355 | 0.0 | 0.0 | 0.00 | 0.00 | 0.00 | 65 | 1020.9 |
| 20260901204605 | 88 | 355 | 0.0 | 0.0 | 0.00 | 0.00 | 0.00 | 62 | 1020.8 |
| 20260901204504 | 88 | 355 | 0.0 | 0.0 | 0.00 | 0.00 | 0.00 | 64 | 1021.0 |
| 20260901204404 | 88 | 336 | 0.0 | 0.0 | 0.00 | 0.00 | 0.00 | 64 | 1020.9 |
| 20260901204304 | 88 | 23 | 0.0 | 0.0 | 0.00 | 0.00 | 0.00 | 64 | 1020.9 |
| 20260901204205 | 88 | 25 | 0.0 | 0.0 | 0.00 | 0.00 | 0.00 | 64 | 1020.9 |
| 20260901204104 | 88 | 26 | 0.0 | 2.6 | 0.00 | 0.00 | 0.00 | 63 | 1021.0 |
| 20260901204001 | 88 | 25 | 0.0 | 2.6 | 0.00 | 0.00 | 0.00 | 63 | 1020.9 |
| 20260901203902 | 87 | 315 | 0.0 | 2.6 | 0.00 | 0.00 | 0.00 | 62 | 1020.9 |
| 20260901203801 | 87 | 315 | 0.0 | 2.6 | 0.00 | 0.00 | 0.00 | 63 | 1020.9 |
| 20260901203702 | 87 | 348 | 0.0 | 2.6 | 0.00 | 0.00 | 0.00 | 64 | 1021.0 |
| 20260901203603 | 87 | 348 | 0.0 | 2.6 | 0.00 | 0.00 | 0.00 | 63 | 1020.9 |
| 20260901203500 | 87 | 349 | 0.0 | 2.6 | 0.00 | 0.00 | 0.00 | 64 | 1021.0 |
| 20260901203400 | 87 | 343 | 0.0 | 2.6 | 0.00 | 0.00 | 0.00 | 63 | 1020.9 |
| 20260901203258 | 87 | 343 | 0.0 | 2.6 | 0.00 | 0.00 | 0.00 | 64 | 1021.0 |
| 20260901203157 | 87 | 355 | 0.0 | 2.6 | 0.00 | 0.00 | 0.00 | 65 | 1021.0 |
| 20260901203058 | 87 | 296 | 0.0 | 1.7 | 0.00 | 0.00 | 0.00 | 63 | 1021.0 |
| 20260901202959 | 87 | 321 | 0.0 | 1.7 | 0.00 | 0.00 | 0.00 | 63 | 1021.0 |
| 20260901202857 | 87 | 331 | 0.0 | 1.7 | 0.00 | 0.00 | 0.00 | 65 | 1020.9 |
| 20260901202757 | 87 | 325 | 0.0 | 0.9 | 0.00 | 0.00 | 0.00 | 65 | 1021.0 |
| 20260901202656 | 87 | 355 | 0.0 | 0.0 | 0.00 | 0.00 | 0.00 | 64 | 1021.0 |
| 20260901202556 | 87 | 355 | 0.0 | 0.0 | 0.00 | 0.00 | 0.00 | 63 | 1020.9 |
| 20260901202456 | 87 | 355 | 0.0 | 0.0 | 0.00 | 0.00 | 0.00 | 66 | 1021.0 |
| 20260901202351 | 87 | 32 | 0.0 | 0.0 | 0.00 | 0.00 | 0.00 | 63 | 1021.0 |
| 20260901202251 | 87 | 23 | 0.0 | 0.0 | 0.00 | 0.00 | 0.00 | 65 | 1020.9 |
| 20260901202149 | 87 | 23 | 0.0 | 0.0 | 0.00 | 0.00 | 0.00 | 62 | 1021.0 |
| 20260901202050 | 87 | 23 | 0.0 | 0.0 | 0.00 | 0.00 | 0.00 | 66 | 1021.0 |
| 20260901201950 | 87 | 36 | 0.0 | 0.9 | 0.00 | 0.00 | 0.00 | 66 | 1020.9 |
| 20260901201851 | 87 | 31 | 0.0 | 0.9 | 0.00 | 0.00 | 0.00 | 64 | 1020.9 |
| 20260901201749 | 87 | 30 | 0.0 | 0.9 | 0.00 | 0.00 | 0.00 | 64 | 1020.9 |
| 20260901201647 | 87 | 30 | 0.0 | 0.9 | 0.00 | 0.00 | 0.00 | 64 | 1020.9 |
| 20260901201547 | 87 | 22 | 0.0 | 0.9 | 0.00 | 0.00 | 0.00 | 66 | 1021.0 |
| 20260901201444 | 87 | 38 | 0.0 | 0.9 | 0.00 | 0.00 | 0.00 | 64 | 1021.0 |
| 20260901201337 | 87 | 9 | 0.0 | 1.7 | 0.00 | 0.00 | 0.00 | 65 | 1020.9 |
| 20260901201239 | 87 | 9 | 0.0 | 1.7 | 0.00 | 0.00 | 0.00 | 65 | 1020.9 |
| 20260901201135 | 87 | 11 | 0.0 | 1.7 | 0.00 | 0.00 | 0.00 | 66 | 1021.0 |
| 20260901201035 | 87 | 319 | 0.0 | 1.7 | 0.00 | 0.00 | 0.00 | 65 | 1021.0 |
| 20260901200935 | 87 | 9 | 0.0 | 1.7 | 0.00 | 0.00 | 0.00 | 64 | 1021.0 |
| 20260901200836 | 87 | 9 | 0.0 | 1.7 | 0.00 | 0.00 | 0.00 | 65 | 1021.0 |
| 20260901200735 | 87 | 5 | 0.0 | 3.5 | 0.00 | 0.00 | 0.00 | 63 | 1021.1 |
| 20260901200636 | 88 | 5 | 0.0 | 3.5 | 0.00 | 0.00 | 0.00 | 66 | 1021.0 |
| 20260901200535 | 88 | 344 | 0.0 | 3.5 | 0.00 | 0.00 | 0.00 | 65 | 1021.1 |
| 20260901200431 | 88 | 343 | 0.0 | 3.5 | 0.00 | 0.00 | 0.00 | 64 | 1021.1 |
| 20260901200332 | 88 | 355 | 0.0 | 4.3 | 0.00 | 0.00 | 0.00 | 65 | 1021.1 |
| 20260901200231 | 88 | 355 | 0.0 | 4.3 | 0.00 | 0.00 | 0.00 | 63 | 1021.1 |
| 20260901200132 | 88 | 344 | 0.0 | 4.3 | 0.00 | 0.00 | 0.00 | 64 | 1021.0 |
| 20260901200031 | 88 | 345 | 0.9 | 4.3 | 0.00 | 0.00 | 0.00 | 64 | 1021.1 |
| 20260901195932 | 88 | 355 | 0.9 | 4.3 | 0.00 | 0.00 | 0.00 | 63 | 1021.1 |
| 20260901195831 | 88 | 346 | 0.9 | 4.3 | 0.00 | 0.00 | 0.00 | 65 | 1021.2 |
| 20260901195732 | 88 | 317 | 0.9 | 4.3 | 0.00 | 0.00 | 0.00 | 64 | 1021.2 |
| 20260901195633 | 88 | 25 | 0.9 | 4.3 | 0.00 | 0.00 | 0.00 | 64 | 1021.2 |
| 20260901195529 | 88 | 24 | 0.9 | 4.3 | 0.00 | 0.00 | 0.00 | 67 | 1021.2 |
| 20260901195429 | 88 | 322 | 0.9 | 4.3 | 0.00 | 0.00 | 0.00 | 66 | 1021.2 |
| 20260901195330 | 88 | 5 | 0.0 | 4.3 | 0.00 | 0.00 | 0.00 | 67 | 1021.2 |
| 20260901195231 | 88 | 30 | 0.9 | 4.3 | 0.00 | 0.00 | 0.00 | 65 | 1021.2 |
| 20260901195126 | 88 | 347 | 0.9 | 4.3 | 0.00 | 0.00 | 0.00 | 65 | 1021.2 |
| 20260901195024 | 88 | 38 | 0.0 | 4.3 | 0.00 | 0.00 | 0.00 | 65 | 1021.2 |
| 20260901194925 | 88 | 25 | 0.0 | 3.5 | 0.00 | 0.00 | 0.00 | 64 | 1021.3 |
| 20260901194824 | 88 | 42 | 0.0 | 5.2 | 0.00 | 0.01 | 0.00 | 65 | 1021.2 |
| 20260901194725 | 88 | 67 | 0.0 | 5.2 | 0.00 | 0.01 | 0.00 | 65 | 1021.3 |
| 20260901194625 | 88 | 70 | 0.0 | 5.2 | 0.00 | 0.01 | 0.00 | 63 | 1021.2 |
| 20260901194521 | 88 | 45 | 0.0 | 5.2 | 0.00 | 0.01 | 0.00 | 63 | 1021.3 |
| 20260901194423 | 88 | 30 | 0.0 | 5.2 | 0.00 | 0.01 | 0.00 | 65 | 1021.3 |
| 20260901194321 | 88 | 16 | 0.0 | 5.2 | 0.00 | 0.01 | 0.00 | 65 | 1021.3 |
| 20260901194219 | 88 | 38 | 0.0 | 5.2 | 0.00 | 0.01 | 0.00 | 66 | 1021.3 |
| 20260901194112 | 88 | 344 | 0.9 | 5.2 | 0.00 | 0.01 | 0.00 | 65 | 1021.3 |
| 20260901194012 | 88 | 344 | 0.9 | 5.2 | 0.00 | 0.01 | 0.00 | 64 | 1021.3 |
| 20260901193912 | 88 | 23 | 0.9 | 5.2 | 0.00 | 0.01 | 0.00 | 63 | 1021.3 |
| 20260901193811 | 88 | 23 | 0.9 | 5.2 | 0.00 | 0.01 | 0.00 | 64 | 1021.3 |
| 20260901193709 | 88 | 331 | 0.9 | 5.2 | 0.00 | 0.02 | 0.00 | 65 | 1021.3 |
| 20260901193605 | 88 | 311 | 0.9 | 5.2 | 0.00 | 0.03 | 0.00 | 62 | 1021.3 |
| 20260901193501 | 88 | 311 | 0.9 | 5.2 | 0.00 | 0.04 | 0.00 | 63 | 1021.3 |
| 20260901193401 | 88 | 310 | 0.9 | 5.2 | 0.00 | 0.05 | 0.00 | 65 | 1021.3 |
| 20260901193303 | 88 | 331 | 0.9 | 5.2 | 0.00 | 0.05 | 0.00 | 66 | 1021.4 |
| 20260901193203 | 87 | 339 | 0.9 | 5.2 | 0.00 | 0.05 | 0.00 | 66 | 1021.3 |
| 20260901193103 | 87 | 329 | 0.9 | 5.2 | 0.00 | 0.06 | 0.00 | 66 | 1021.3 |
| 20260901193001 | 87 | 316 | 0.9 | 5.2 | 0.00 | 0.06 | 0.00 | 63 | 1021.4 |
| 20260901192902 | 87 | 328 | 0.9 | 4.3 | 0.00 | 0.06 | 0.00 | 65 | 1021.3 |
| 20260901192801 | 87 | 329 | 0.9 | 3.5 | 0.00 | 0.07 | 0.00 | 64 | 1021.4 |
| 20260901192703 | 87 | 329 | 0.9 | 3.5 | 0.00 | 0.07 | 0.00 | 67 | 1021.4 |
| 20260901192601 | 87 | 329 | 0.9 | 3.5 | 0.00 | 0.09 | 0.00 | 66 | 1021.4 |
| 20260901192501 | 87 | 328 | 0.9 | 3.5 | 0.00 | 0.10 | 0.00 | 64 | 1021.4 |
| 20260901192359 | 87 | 326 | 0.9 | 3.5 | 0.00 | 0.10 | 0.00 | 65 | 1021.5 |
| 20260901192306 | 87 | 304 | 0.9 | 3.5 | 0.00 | 0.11 | 0.00 | 67 | 1021.4 |
| 20260901192159 | 87 | 338 | 0.9 | 3.5 | 0.00 | 0.12 | 0.00 | 66 | 1021.5 |
| 20260901192101 | 87 | 5 | 0.0 | 3.5 | 0.00 | 0.14 | 0.00 | 66 | 1021.4 |
| 20260901192000 | 87 | 59 | 0.0 | 3.5 | 0.00 | 0.15 | 0.00 | 63 | 1021.5 |
| 20260901191855 | 87 | 41 | 0.0 | 3.5 | 0.00 | 0.15 | 0.00 | 63 | 1021.5 |
| 20260901191754 | 87 | 34 | 0.0 | 3.5 | 0.00 | 0.15 | 0.00 | 64 | 1021.5 |
| 20260901191656 | 87 | 35 | 0.0 | 2.6 | 0.00 | 0.15 | 0.00 | 66 | 1021.5 |
| 20260901191555 | 87 | 42 | 0.0 | 2.6 | 0.00 | 0.15 | 0.00 | 63 | 1021.5 |
| 20260901191453 | 87 | 37 | 0.0 | 3.5 | 0.00 | 0.15 | 0.00 | 65 | 1021.4 |
| 20260901191354 | 87 | 67 | 0.0 | 3.5 | 0.00 | 0.15 | 0.00 | 64 | 1021.5 |
| 20260901191254 | 87 | 348 | 0.0 | 3.5 | 0.00 | 0.15 | 0.00 | 65 | 1021.4 |
| 20260901191154 | 87 | 5 | 0.0 | 3.5 | 0.00 | 0.15 | 0.00 | 65 | 1021.5 |
| 20260901191053 | 87 | 355 | 0.0 | 3.5 | 0.00 | 0.15 | 0.00 | 65 | 1021.4 |
| 20260901190953 | 87 | 355 | 0.0 | 3.5 | 0.00 | 0.15 | 0.00 | 65 | 1021.5 |
| 20260901190854 | 87 | 351 | 0.0 | 3.5 | 0.00 | 0.15 | 0.00 | 66 | 1021.4 |
| 20260901190752 | 87 | 288 | 0.9 | 3.5 | 0.00 | 0.15 | 0.00 | 64 | 1021.4 |
| 20260901190647 | 87 | 288 | 0.9 | 3.5 | 0.00 | 0.15 | 0.00 | 63 | 1021.5 |
| 20260901190548 | 87 | 288 | 0.9 | 5.2 | 0.00 | 0.15 | 0.00 | 65 | 1021.5 |
| 20260901190447 | 87 | 301 | 0.9 | 5.2 | 0.00 | 0.15 | 0.00 | 64 | 1021.5 |
| 20260901190346 | 87 | 336 | 0.9 | 5.2 | 0.00 | 0.15 | 0.00 | 63 | 1021.5 |
| 20260901190248 | 87 | 336 | 0.9 | 5.2 | 0.00 | 0.15 | 0.00 | 66 | 1021.5 |
| 20260901190146 | 87 | 351 | 0.9 | 5.2 | 0.00 | 0.15 | 0.00 | 65 | 1021.6 |
| 20260901190047 | 87 | 313 | 0.9 | 5.2 | 0.00 | 0.15 | 0.00 | 66 | 1021.6 |
| 20260901185947 | 87 | 306 | 0.9 | 5.2 | 0.00 | 0.15 | 0.00 | 64 | 1021.6 |
| 20260901185847 | 87 | 297 | 0.9 | 5.2 | 0.00 | 0.15 | 0.00 | 64 | 1021.5 |
| 20260901185747 | 87 | 315 | 0.9 | 5.2 | 0.00 | 0.15 | 0.00 | 64 | 1021.5 |
| 20260901185658 | 87 | 346 | 0.9 | 5.2 | 0.00 | 0.15 | 0.00 | 65 | 1021.6 |
| 20260901185547 | 87 | 23 | 0.9 | 5.2 | 0.00 | 0.15 | 0.00 | 65 | 1021.5 |
| 20260901185447 | 87 | 36 | 0.9 | 7.0 | 0.00 | 0.15 | 0.00 | 66 | 1021.6 |
| 20260901185348 | 87 | 9 | 0.9 | 7.0 | 0.00 | 0.15 | 0.00 | 65 | 1021.6 |
| 20260901185246 | 87 | 5 | 0.9 | 7.0 | 0.00 | 0.15 | 0.00 | 66 | 1021.6 |
| 20260901185147 | 87 | 17 | 0.9 | 7.0 | 0.00 | 0.15 | 0.00 | 64 | 1021.6 |
| 20260901185048 | 87 | 334 | 0.9 | 7.0 | 0.00 | 0.15 | 0.00 | 64 | 1021.6 |
| 20260901184947 | 87 | 331 | 0.9 | 7.0 | 0.00 | 0.15 | 0.00 | 65 | 1021.7 |
| 20260901184846 | 87 | 313 | 0.9 | 7.0 | 0.00 | 0.15 | 0.00 | 65 | 1021.6 |
| 20260901184748 | 87 | 26 | 0.9 | 7.0 | 0.00 | 0.15 | 0.00 | 65 | 1021.6 |
| 20260901184648 | 87 | 9 | 0.9 | 7.0 | 0.00 | 0.15 | 0.00 | 66 | 1021.6 |
| 20260901184547 | 87 | 332 | 0.9 | 7.0 | 0.00 | 0.15 | 0.00 | 68 | 1021.7 |
| 20260901184448 | 87 | 336 | 0.9 | 5.2 | 0.00 | 0.15 | 0.00 | 67 | 1021.7 |
| 20260901184347 | 87 | 355 | 0.9 | 5.2 | 0.00 | 0.15 | 0.00 | 66 | 1021.7 |
| 20260901184247 | 87 | 45 | 0.9 | 5.2 | 0.00 | 0.15 | 0.00 | 69 | 1021.9 |
| 20260901184148 | 87 | 37 | 0.9 | 5.2 | 0.00 | 0.15 | 0.00 | 68 | 1021.7 |
| 20260901184048 | 87 | 351 | 0.9 | 5.2 | 0.00 | 0.15 | 0.00 | 66 | 1021.7 |
| 20260901183947 | 86 | 351 | 0.9 | 5.2 | 0.00 | 0.15 | 0.00 | 65 | 1021.7 |
| 20260901183846 | 87 | 350 | 0.9 | 5.2 | 0.00 | 0.15 | 0.00 | 65 | 1021.7 |
| 20260901183747 | 87 | 343 | 0.9 | 5.2 | 0.00 | 0.15 | 0.00 | 67 | 1021.9 |
| 20260901183646 | 87 | 5 | 0.9 | 3.5 | 0.00 | 0.15 | 0.00 | 67 | 1021.9 |
| 20260901183548 | 87 | 342 | 0.9 | 3.5 | 0.00 | 0.15 | 0.00 | 68 | 1021.7 |
| 20260901183448 | 87 | 40 | 0.9 | 3.5 | 0.00 | 0.15 | 0.00 | 65 | 1021.7 |
| 20260901183345 | 87 | 35 | 0.0 | 3.5 | 0.00 | 0.15 | 0.00 | 66 | 1021.7 |
| 20260901183243 | 86 | 348 | 0.0 | 3.5 | 0.00 | 0.15 | 0.00 | 69 | 1021.7 |
| 20260901183145 | 86 | 25 | 0.0 | 3.5 | 0.00 | 0.15 | 0.00 | 68 | 1021.7 |
| 20260901183043 | 86 | 319 | 0.0 | 3.5 | 0.00 | 0.15 | 0.00 | 69 | 1021.6 |
| 20260901182943 | 86 | 280 | 0.0 | 3.5 | 0.00 | 0.15 | 0.00 | 69 | 1021.7 |
| 20260901182844 | 86 | 327 | 0.0 | 2.6 | 0.00 | 0.15 | 0.00 | 69 | 1021.9 |
| 20260901182743 | 86 | 328 | 0.9 | 4.3 | 0.00 | 0.15 | 0.00 | 67 | 1021.7 |
| 20260901182642 | 86 | 335 | 0.9 | 7.0 | 0.00 | 0.15 | 0.00 | 68 | 1021.7 |
| 20260901182544 | 86 | 334 | 0.9 | 7.0 | 0.00 | 0.15 | 0.00 | 67 | 1021.9 |
| 20260901182443 | 86 | 355 | 0.9 | 7.0 | 0.00 | 0.15 | 0.00 | 67 | 1021.9 |
| 20260901182342 | 86 | 350 | 0.9 | 7.0 | 0.00 | 0.15 | 0.00 | 65 | 1021.9 |
| 20260901182243 | 86 | 355 | 0.9 | 7.0 | 0.00 | 0.15 | 0.00 | 65 | 1021.9 |
| 20260901182144 | 86 | 319 | 0.9 | 7.0 | 0.00 | 0.15 | 0.00 | 65 | 1021.9 |
| 20260901182044 | 86 | 315 | 1.7 | 7.0 | 0.00 | 0.15 | 0.00 | 67 | 1021.7 |
| 20260901181943 | 86 | 307 | 1.7 | 7.0 | 0.00 | 0.15 | 0.00 | 66 | 1021.7 |
| 20260901181843 | 86 | 320 | 1.7 | 7.0 | 0.00 | 0.15 | 0.00 | 66 | 1021.9 |
| 20260901181744 | 86 | 315 | 0.9 | 7.0 | 0.00 | 0.15 | 0.00 | 66 | 1021.9 |
| 20260901181643 | 86 | 347 | 0.9 | 5.2 | 0.00 | 0.15 | 0.00 | 67 | 1021.6 |
| 20260901181542 | 86 | 40 | 0.9 | 5.2 | 0.00 | 0.15 | 0.00 | 66 | 1021.9 |
| 20260901181443 | 86 | 79 | 0.9 | 5.2 | 0.00 | 0.15 | 0.00 | 68 | 1021.9 |
| 20260901181344 | 86 | 10 | 0.9 | 5.2 | 0.00 | 0.15 | 0.00 | 67 | 1021.9 |
| 20260901181243 | 86 | 5 | 0.9 | 5.2 | 0.00 | 0.15 | 0.00 | 68 | 1021.9 |
| 20260901181144 | 86 | 350 | 0.0 | 5.2 | 0.00 | 0.15 | 0.00 | 67 | 1021.7 |
| 20260901181042 | 86 | 348 | 0.0 | 3.5 | 0.00 | 0.15 | 0.00 | 68 | 1021.9 |
| 20260901180944 | 86 | 344 | 0.0 | 2.6 | 0.00 | 0.15 | 0.00 | 67 | 1022.0 |
| 20260901180844 | 86 | 31 | 0.0 | 0.0 | 0.00 | 0.15 | 0.00 | 69 | 1021.9 |
| 20260901180734 | 86 | 28 | 0.0 | 0.0 | 0.00 | 0.15 | 0.00 | 69 | 1022.0 |
| 20260901180635 | 86 | 38 | 0.0 | 0.0 | 0.00 | 0.15 | 0.00 | 67 | 1021.9 |
| 20260901180535 | 86 | 38 | 0.0 | 0.0 | 0.00 | 0.15 | 0.00 | 66 | 1022.0 |
| 20260901180436 | 86 | 38 | 0.0 | 0.0 | 0.00 | 0.15 | 0.00 | 66 | 1022.0 |
| 20260901180335 | 85 | 38 | 0.0 | 0.0 | 0.00 | 0.15 | 0.00 | 66 | 1022.0 |
| 20260901180235 | 85 | 38 | 0.0 | 0.0 | 0.00 | 0.15 | 0.00 | 68 | 1022.0 |
| 20260901180136 | 85 | 26 | 0.0 | 0.0 | 0.00 | 0.15 | 0.00 | 66 | 1022.0 |
| 20260901180035 | 85 | 12 | 0.0 | 0.0 | 0.00 | 0.15 | 0.00 | 66 | 1022.1 |
| 20260901175935 | 85 | 5 | 0.0 | 0.0 | 0.00 | 0.15 | 0.00 | 67 | 1022.0 |
| 20260901175835 | 85 | 311 | 0.0 | 0.0 | 0.00 | 0.15 | 0.00 | 67 | 1022.0 |
| 20260901175736 | 85 | 274 | 0.0 | 0.0 | 0.00 | 0.15 | 0.00 | 68 | 1021.9 |
| 20260901175635 | 85 | 320 | 0.0 | 0.0 | 0.00 | 0.15 | 0.00 | 69 | 1022.1 |
| 20260901175535 | 85 | 355 | 0.0 | 0.0 | 0.00 | 0.15 | 0.00 | 68 | 1022.0 |
| 20260901175436 | 85 | 342 | 0.0 | 0.0 | 0.00 | 0.15 | 0.00 | 67 | 1022.0 |
| 20260901175335 | 85 | 5 | 0.0 | 0.0 | 0.00 | 0.15 | 0.00 | 67 | 1022.0 |
| 20260901175236 | 85 | 26 | 0.0 | 0.0 | 0.00 | 0.15 | 0.00 | 67 | 1022.0 |
| 20260901175136 | 85 | 23 | 0.0 | 0.0 | 0.00 | 0.15 | 0.00 | 68 | 1022.0 |
| 20260901175034 | 85 | 24 | 0.0 | 0.0 | 0.00 | 0.15 | 0.00 | 67 | 1022.0 |
| 20260901174934 | 85 | 318 | 0.0 | 0.0 | 0.00 | 0.15 | 0.00 | 66 | 1022.0 |
| 20260901174835 | 85 | 318 | 0.0 | 0.0 | 0.00 | 0.15 | 0.00 | 66 | 1022.0 |
| 20260901174735 | 85 | 311 | 0.0 | 0.0 | 0.00 | 0.15 | 0.00 | 68 | 1022.0 |
| 20260901174636 | 85 | 325 | 0.0 | 0.0 | 0.00 | 0.15 | 0.00 | 68 | 1022.0 |
| 20260901174536 | 85 | 331 | 0.0 | 0.0 | 0.00 | 0.15 | 0.00 | 67 | 1022.0 |
| 20260901174436 | 85 | 0 | 0.0 | 0.0 | 0.00 | 0.15 | 0.00 | 68 | 1022.1 |
| 20260901174334 | 85 | 355 | 0.0 | 0.0 | 0.00 | 0.15 | 0.00 | 68 | 1022.1 |
| 20260901174236 | 85 | 5 | 0.0 | 0.0 | 0.00 | 0.15 | 0.00 | 67 | 1022.0 |
| 20260901174135 | 85 | 5 | 0.0 | 0.0 | 0.00 | 0.15 | 0.00 | 69 | 1022.0 |
| 20260901174035 | 85 | 5 | 0.0 | 0.0 | 0.00 | 0.15 | 0.00 | 67 | 1022.0 |
| 20260901173935 | 85 | 5 | 0.0 | 0.0 | 0.00 | 0.15 | 0.00 | 68 | 1022.1 |
| 20260901173835 | 85 | 339 | 0.0 | 0.0 | 0.00 | 0.15 | 0.00 | 71 | 1022.1 |
| 20260901173735 | 85 | 348 | 0.0 | 0.0 | 0.00 | 0.15 | 0.00 | 69 | 1022.1 |
| 20260901173634 | 85 | 355 | 0.0 | 0.0 | 0.00 | 0.15 | 0.00 | 68 | 1022.0 |
| 20260901173536 | 85 | 17 | 0.0 | 0.0 | 0.00 | 0.15 | 0.00 | 68 | 1022.0 |
| 20260901173432 | 85 | 50 | 0.0 | 0.0 | 0.00 | 0.15 | 0.00 | 68 | 1022.1 |
| 20260901173331 | 85 | 26 | 0.0 | 0.0 | 0.00 | 0.15 | 0.00 | 68 | 1022.1 |
| 20260901173230 | 85 | 316 | 0.0 | 0.0 | 0.00 | 0.15 | 0.00 | 67 | 1022.0 |
| 20260901173131 | 85 | 0 | 0.0 | 0.0 | 0.00 | 0.15 | 0.00 | 68 | 1022.0 |
| 20260901173031 | 85 | 19 | 0.0 | 0.0 | 0.00 | 0.15 | 0.00 | 70 | 1022.0 |
| 20260901172932 | 85 | 321 | 0.0 | 0.0 | 0.00 | 0.15 | 0.00 | 67 | 1022.0 |
| 20260901172830 | 85 | 321 | 0.0 | 0.0 | 0.00 | 0.15 | 0.00 | 71 | 1022.1 |
| 20260901172732 | 85 | 329 | 0.0 | 0.0 | 0.00 | 0.15 | 0.00 | 69 | 1022.0 |
| 20260901172631 | 85 | 328 | 0.0 | 0.0 | 0.00 | 0.15 | 0.00 | 71 | 1022.1 |
| 20260901172531 | 85 | 325 | 0.0 | 0.0 | 0.00 | 0.15 | 0.00 | 68 | 1022.1 |
| 20260901172431 | 85 | 319 | 0.0 | 0.0 | 0.00 | 0.15 | 0.00 | 67 | 1022.1 |
| 20260901172330 | 85 | 25 | 0.0 | 0.0 | 0.00 | 0.15 | 0.00 | 66 | 1022.1 |
| 20260901172232 | 85 | 5 | 0.0 | 0.0 | 0.00 | 0.15 | 0.00 | 68 | 1022.1 |
| 20260901172130 | 85 | 5 | 0.0 | 0.0 | 0.00 | 0.15 | 0.00 | 68 | 1022.2 |
| 20260901172032 | 85 | 9 | 0.0 | 0.0 | 0.00 | 0.15 | 0.00 | 67 | 1022.2 |
| 20260901171931 | 85 | 337 | 0.0 | 0.0 | 0.00 | 0.15 | 0.00 | 68 | 1022.2 |
| 20260901171832 | 85 | 325 | 0.0 | 0.0 | 0.00 | 0.15 | 0.00 | 68 | 1022.2 |
| 20260901171732 | 85 | 317 | 0.0 | 0.0 | 0.00 | 0.15 | 0.00 | 67 | 1022.2 |
| 20260901171630 | 85 | 313 | 0.0 | 0.0 | 0.00 | 0.15 | 0.00 | 69 | 1022.2 |
| 20260901171531 | 85 | 330 | 0.0 | 0.0 | 0.00 | 0.15 | 0.00 | 68 | 1022.2 |
| 20260901171432 | 85 | 325 | 0.0 | 0.0 | 0.00 | 0.15 | 0.00 | 68 | 1022.2 |
| 20260901171332 | 85 | 312 | 0.0 | 0.0 | 0.00 | 0.15 | 0.00 | 68 | 1022.2 |
| 20260901171232 | 85 | 338 | 0.0 | 0.0 | 0.00 | 0.15 | 0.00 | 67 | 1022.2 |
| 20260901171131 | 85 | 303 | 0.0 | 0.0 | 0.00 | 0.15 | 0.00 | 66 | 1022.2 |
| 20260901171031 | 85 | 280 | 0.0 | 0.0 | 0.00 | 0.15 | 0.00 | 70 | 1022.2 |
| 20260901170931 | 85 | 323 | 0.0 | 0.0 | 0.00 | 0.15 | 0.00 | 69 | 1022.2 |
| 20260901170831 | 85 | 284 | 0.0 | 0.0 | 0.00 | 0.15 | 0.00 | 66 | 1022.3 |
| 20260901170732 | 85 | 315 | 0.0 | 0.0 | 0.00 | 0.15 | 0.00 | 66 | 1022.2 |
| 20260901170631 | 85 | 333 | 0.0 | 0.0 | 0.00 | 0.15 | 0.00 | 68 | 1022.2 |
| 20260901170531 | 85 | 310 | 0.0 | 0.0 | 0.00 | 0.15 | 0.00 | 66 | 1022.2 |
| 20260901170431 | 85 | 343 | 0.0 | 0.0 | 0.00 | 0.15 | 0.00 | 67 | 1022.3 |
| 20260901170332 | 85 | 307 | 0.0 | 0.0 | 0.00 | 0.15 | 0.00 | 67 | 1022.2 |
| 20260901170232 | 85 | 331 | 0.0 | 0.0 | 0.00 | 0.15 | 0.00 | 67 | 1022.2 |
| 20260901170130 | 85 | 309 | 0.0 | 0.0 | 0.00 | 0.15 | 0.00 | 68 | 1022.3 |
| 20260901170032 | 85 | 338 | 0.0 | 0.0 | 0.00 | 0.15 | 0.00 | 67 | 1022.3 |
| 20260901165932 | 85 | 10 | 0.0 | 0.0 | 0.00 | 0.15 | 0.00 | 69 | 1022.3 |
| 20260901165830 | 85 | 304 | 0.0 | 0.0 | 0.00 | 0.15 | 0.00 | 71 | 1022.3 |
| 20260901165730 | 85 | 305 | 0.0 | 0.0 | 0.00 | 0.15 | 0.00 | 67 | 1022.3 |
| 20260901165632 | 85 | 304 | 0.0 | 0.0 | 0.00 | 0.15 | 0.00 | 66 | 1022.3 |
| 20260901165528 | 85 | 304 | 0.0 | 0.0 | 0.00 | 0.15 | 0.00 | 67 | 1022.2 |
| 20260901165429 | 85 | 279 | 0.0 | 0.0 | 0.00 | 0.15 | 0.00 | 66 | 1022.3 |
| 20260901165328 | 85 | 34 | 0.0 | 0.0 | 0.00 | 0.15 | 0.00 | 68 | 1022.3 |
| 20260901165227 | 85 | 46 | 0.0 | 0.0 | 0.00 | 0.15 | 0.00 | 68 | 1022.4 |
| 20260901165127 | 85 | 355 | 0.0 | 0.0 | 0.00 | 0.15 | 0.00 | 67 | 1022.3 |
| 20260901165028 | 85 | 355 | 0.0 | 0.0 | 0.00 | 0.15 | 0.00 | 68 | 1022.3 |
| 20260901164923 | 85 | 355 | 0.0 | 0.0 | 0.00 | 0.15 | 0.00 | 67 | 1022.4 |
| 20260901164820 | 85 | 306 | 0.0 | 0.0 | 0.00 | 0.15 | 0.00 | 66 | 1022.3 |
| 20260901164721 | 84 | 306 | 0.0 | 0.0 | 0.00 | 0.15 | 0.00 | 68 | 1022.4 |
| 20260901164620 | 84 | 55 | 0.0 | 0.0 | 0.00 | 0.15 | 0.00 | 68 | 1022.4 |
| 20260901164517 | 84 | 56 | 0.0 | 0.0 | 0.00 | 0.15 | 0.00 | 69 | 1022.4 |
| 20260901164414 | 84 | 308 | 0.0 | 0.0 | 0.00 | 0.15 | 0.00 | 66 | 1022.4 |
| 20260901164311 | 84 | 309 | 0.0 | 0.0 | 0.00 | 0.15 | 0.00 | 65 | 1022.5 |
| 20260901164212 | 84 | 307 | 0.0 | 0.0 | 0.00 | 0.15 | 0.00 | 66 | 1022.5 |
| 20260901164111 | 84 | 307 | 0.0 | 0.0 | 0.00 | 0.15 | 0.00 | 66 | 1022.5 |
| 20260901164012 | 84 | 281 | 0.0 | 0.0 | 0.00 | 0.15 | 0.00 | 67 | 1022.6 |
| 20260901163905 | 84 | 279 | 0.0 | 0.0 | 0.00 | 0.15 | 0.00 | 65 | 1022.6 |
| 20260901163805 | 84 | 290 | 0.0 | 0.0 | 0.00 | 0.15 | 0.00 | 64 | 1022.5 |
| 20260901163707 | 84 | 312 | 0.0 | 0.0 | 0.00 | 0.15 | 0.00 | 66 | 1022.5 |
| 20260901163605 | 84 | 331 | 0.0 | 0.0 | 0.00 | 0.15 | 0.00 | 67 | 1022.5 |
| 20260901163506 | 84 | 339 | 0.0 | 0.0 | 0.00 | 0.15 | 0.00 | 68 | 1022.5 |
| 20260901163358 | 84 | 313 | 0.0 | 0.0 | 0.00 | 0.15 | 0.00 | 67 | 1022.6 |
| 20260901163257 | 84 | 350 | 0.0 | 0.0 | 0.00 | 0.15 | 0.00 | 68 | 1022.6 |
| 20260901163155 | 84 | 355 | 0.0 | 0.0 | 0.00 | 0.15 | 0.00 | 66 | 1022.5 |
| 20260901163057 | 84 | 344 | 0.0 | 0.0 | 0.00 | 0.15 | 0.00 | 67 | 1022.6 |
| 20260901162956 | 84 | 308 | 0.0 | 0.0 | 0.00 | 0.15 | 0.00 | 65 | 1022.6 |
| 20260901162850 | 84 | 309 | 0.0 | 0.0 | 0.00 | 0.15 | 0.00 | 64 | 1022.6 |
| 20260901162749 | 84 | 330 | 0.0 | 0.0 | 0.00 | 0.15 | 0.00 | 64 | 1022.5 |
| 20260901162650 | 84 | 329 | 0.0 | 0.0 | 0.00 | 0.15 | 0.00 | 65 | 1022.6 |
| 20260901162551 | 84 | 329 | 0.0 | 0.0 | 0.00 | 0.15 | 0.00 | 64 | 1022.6 |
| 20260901162450 | 84 | 318 | 0.0 | 0.0 | 0.00 | 0.15 | 0.00 | 65 | 1022.6 |
| 20260901162347 | 84 | 347 | 0.0 | 0.0 | 0.00 | 0.15 | 0.00 | 65 | 1022.6 |
| 20260901162243 | 84 | 346 | 0.0 | 0.0 | 0.00 | 0.15 | 0.00 | 63 | 1022.7 |
| 20260901162144 | 84 | 339 | 0.0 | 0.0 | 0.00 | 0.15 | 0.00 | 64 | 1022.6 |
| 20260901162045 | 84 | 331 | 0.0 | 0.0 | 0.00 | 0.15 | 0.00 | 64 | 1022.7 |
| 20260901161944 | 84 | 309 | 0.0 | 0.0 | 0.00 | 0.15 | 0.00 | 63 | 1022.7 |
| 20260901161836 | 84 | 346 | 0.0 | 0.0 | 0.00 | 0.15 | 0.00 | 67 | 1022.7 |
| 20260901161733 | 84 | 303 | 0.0 | 0.0 | 0.00 | 0.15 | 0.00 | 64 | 1022.7 |
| 20260901161633 | 84 | 302 | 0.0 | 0.0 | 0.00 | 0.15 | 0.00 | 66 | 1022.6 |
| 20260901161534 | 84 | 334 | 0.0 | 0.0 | 0.00 | 0.15 | 0.00 | 67 | 1022.6 |
| 20260901161432 | 84 | 13 | 0.0 | 0.0 | 0.00 | 0.15 | 0.00 | 64 | 1022.7 |
| 20260901161329 | 84 | 13 | 0.0 | 0.0 | 0.00 | 0.15 | 0.00 | 66 | 1022.7 |
| 20260901161230 | 84 | 347 | 0.0 | 0.0 | 0.00 | 0.15 | 0.00 | 67 | 1022.7 |
| 20260901161130 | 84 | 341 | 0.0 | 0.0 | 0.00 | 0.15 | 0.00 | 65 | 1022.7 |
| 20260901161027 | 84 | 340 | 0.0 | 0.0 | 0.00 | 0.15 | 0.00 | 67 | 1022.7 |
| 20260901160925 | 84 | 340 | 0.0 | 0.0 | 0.00 | 0.15 | 0.00 | 65 | 1022.7 |
| 20260901160826 | 84 | 341 | 0.0 | 0.0 | 0.00 | 0.15 | 0.00 | 65 | 1022.7 |
| 20260901160724 | 84 | 341 | 0.0 | 0.0 | 0.00 | 0.15 | 0.00 | 67 | 1022.8 |
| 20260901160622 | 84 | 343 | 0.0 | 0.0 | 0.00 | 0.15 | 0.00 | 67 | 1022.8 |
| 20260901160521 | 84 | 355 | 0.0 | 0.0 | 0.00 | 0.15 | 0.00 | 66 | 1022.8 |
| 20260901160419 | 84 | 355 | 0.0 | 0.0 | 0.00 | 0.15 | 0.00 | 67 | 1022.8 |
| 20260901160311 | 84 | 355 | 0.0 | 0.0 | 0.00 | 0.15 | 0.00 | 67 | 1022.8 |
| 20260901160211 | 84 | 341 | 0.0 | 0.0 | 0.00 | 0.15 | 0.00 | 68 | 1022.8 |
| 20260901160110 | 84 | 334 | 0.0 | 0.0 | 0.00 | 0.15 | 0.00 | 65 | 1022.8 |
| 20260901160011 | 84 | 334 | 0.0 | 0.0 | 0.00 | 0.15 | 0.00 | 66 | 1022.7 |
| 20260901155909 | 84 | 349 | 0.0 | 0.0 | 0.00 | 0.15 | 0.00 | 68 | 1022.8 |
| 20260901155803 | 84 | 340 | 0.0 | 0.0 | 0.00 | 0.15 | 0.00 | 66 | 1022.8 |
| 20260901155703 | 84 | 340 | 0.0 | 0.0 | 0.00 | 0.15 | 0.00 | 65 | 1022.9 |
| 20260901155604 | 84 | 341 | 0.0 | 0.0 | 0.00 | 0.15 | 0.00 | 65 | 1022.8 |
| 20260901155503 | 84 | 339 | 0.0 | 0.0 | 0.00 | 0.15 | 0.00 | 65 | 1022.8 |
| 20260901155404 | 84 | 337 | 0.0 | 0.0 | 0.00 | 0.15 | 0.00 | 66 | 1022.8 |
| 20260901155259 | 84 | 336 | 0.0 | 0.0 | 0.00 | 0.15 | 0.00 | 68 | 1022.8 |
| 20260901155200 | 84 | 306 | 0.0 | 0.0 | 0.00 | 0.15 | 0.00 | 69 | 1022.8 |
| 20260901155059 | 84 | 19 | 0.0 | 0.0 | 0.00 | 0.15 | 0.00 | 69 | 1022.8 |
| 20260901155000 | 84 | 5 | 0.0 | 0.0 | 0.00 | 0.15 | 0.00 | 68 | 1022.9 |
| 20260901154857 | 84 | 343 | 0.0 | 0.0 | 0.00 | 0.15 | 0.00 | 71 | 1022.8 |
| 20260901154748 | 83 | 298 | 0.0 | 0.0 | 0.00 | 0.15 | 0.00 | 68 | 1022.9 |
| 20260901154648 | 83 | 296 | 0.0 | 0.0 | 0.00 | 0.15 | 0.00 | 69 | 1022.9 |
| 20260901154548 | 83 | 296 | 0.0 | 0.0 | 0.00 | 0.15 | 0.00 | 65 | 1022.9 |
| 20260901154448 | 83 | 319 | 0.0 | 0.0 | 0.00 | 0.15 | 0.00 | 67 | 1022.9 |
| 20260901154346 | 83 | 318 | 0.0 | 0.0 | 0.00 | 0.15 | 0.00 | 72 | 1023.0 |
| 20260901154244 | 83 | 5 | 0.0 | 0.0 | 0.00 | 0.15 | 0.00 | 69 | 1022.9 |
| 20260901154144 | 83 | 5 | 0.0 | 0.0 | 0.00 | 0.15 | 0.00 | 69 | 1022.9 |
| 20260901154044 | 83 | 5 | 0.0 | 0.0 | 0.00 | 0.15 | 0.00 | 70 | 1022.9 |
| 20260901153942 | 83 | 0 | 0.0 | 0.0 | 0.00 | 0.15 | 0.00 | 71 | 1023.0 |
| 20260901153839 | 83 | 0 | 0.0 | 0.0 | 0.00 | 0.15 | 0.00 | 69 | 1023.0 |
| 20260901153735 | 83 | 0 | 0.0 | 0.0 | 0.00 | 0.15 | 0.00 | 68 | 1023.0 |
| 20260901153635 | 83 | 5 | 0.0 | 0.0 | 0.00 | 0.15 | 0.00 | 70 | 1022.9 |
| 20260901153536 | 83 | 5 | 0.0 | 0.0 | 0.00 | 0.15 | 0.00 | 68 | 1022.9 |
| 20260901153436 | 83 | 5 | 0.0 | 0.0 | 0.00 | 0.15 | 0.00 | 68 | 1022.9 |
| 20260901153334 | 83 | 5 | 0.0 | 0.0 | 0.00 | 0.15 | 0.00 | 70 | 1023.0 |
| 20260901153229 | 83 | 5 | 0.0 | 0.0 | 0.00 | 0.15 | 0.00 | 72 | 1022.9 |
| 20260901153127 | 83 | 5 | 0.0 | 0.0 | 0.00 | 0.15 | 0.00 | 72 | 1022.9 |
| 20260901153029 | 83 | 5 | 0.0 | 0.0 | 0.00 | 0.15 | 0.00 | 75 | 1022.9 |
| 20260901152925 | 83 | 5 | 0.0 | 0.0 | 0.00 | 0.15 | 0.00 | 73 | 1022.8 |
| 20260901152823 | 83 | 5 | 0.0 | 0.0 | 0.00 | 0.15 | 0.00 | 74 | 1022.9 |
| 20260901152724 | 82 | 5 | 0.0 | 0.0 | 0.00 | 0.15 | 0.00 | 72 | 1022.9 |
| 20260901152622 | 82 | 5 | 0.0 | 0.0 | 0.00 | 0.15 | 0.00 | 73 | 1022.9 |
| 20260901152522 | 82 | 15 | 0.0 | 0.0 | 0.00 | 0.15 | 0.00 | 72 | 1022.9 |
| 20260901152420 | 82 | 15 | 0.0 | 0.0 | 0.00 | 0.15 | 0.00 | 71 | 1023.0 |
| 20260901152317 | 82 | 15 | 0.0 | 0.0 | 0.00 | 0.15 | 0.00 | 70 | 1022.9 |
| 20260901152217 | 82 | 15 | 0.0 | 0.0 | 0.00 | 0.15 | 0.00 | 74 | 1022.9 |
| 20260901152116 | 82 | 16 | 0.0 | 0.0 | 0.00 | 0.15 | 0.00 | 71 | 1022.9 |
| 20260901152015 | 82 | 16 | 0.0 | 0.0 | 0.00 | 0.15 | 0.00 | 73 | 1023.0 |
| 20260901151914 | 82 | 16 | 0.0 | 0.0 | 0.00 | 0.15 | 0.00 | 71 | 1022.9 |
| 20260901151810 | 82 | 16 | 0.0 | 0.0 | 0.00 | 0.15 | 0.00 | 72 | 1022.9 |
| 20260901151701 | 82 | 17 | 0.0 | 0.0 | 0.00 | 0.15 | 0.00 | 71 | 1022.9 |
| 20260901151602 | 82 | 19 | 0.0 | 0.0 | 0.00 | 0.15 | 0.00 | 72 | 1023.0 |
| 20260901151502 | 82 | 21 | 0.0 | 0.0 | 0.00 | 0.15 | 0.00 | 71 | 1023.0 |
| 20260901151401 | 82 | 20 | 0.0 | 0.0 | 0.00 | 0.15 | 0.00 | 73 | 1022.9 |
| 20260901151259 | 82 | 21 | 0.0 | 0.0 | 0.00 | 0.15 | 0.00 | 72 | 1023.0 |
| 20260901151156 | 82 | 15 | 0.0 | 0.0 | 0.00 | 0.15 | 0.00 | 71 | 1023.0 |
| 20260901151053 | 82 | 17 | 0.0 | 0.0 | 0.00 | 0.15 | 0.00 | 74 | 1022.9 |
| 20260901150953 | 82 | 5 | 0.0 | 0.0 | 0.00 | 0.15 | 0.00 | 76 | 1022.9 |
| 20260901150853 | 82 | 327 | 0.0 | 0.0 | 0.00 | 0.15 | 0.00 | 72 | 1022.9 |
| 20260901150754 | 82 | 327 | 0.0 | 0.0 | 0.00 | 0.15 | 0.00 | 72 | 1023.0 |
| 20260901150655 | 82 | 346 | 0.0 | 0.0 | 0.00 | 0.15 | 0.00 | 75 | 1023.0 |
| 20260901150552 | 82 | 28 | 0.0 | 0.0 | 0.00 | 0.15 | 0.00 | 72 | 1023.1 |
| 20260901150451 | 82 | 9 | 0.0 | 0.0 | 0.00 | 0.15 | 0.00 | 74 | 1023.1 |
| 20260901150351 | 82 | 325 | 0.0 | 0.0 | 0.00 | 0.15 | 0.00 | 74 | 1023.0 |
| 20260901150248 | 82 | 327 | 0.0 | 0.0 | 0.00 | 0.15 | 0.00 | 73 | 1023.0 |
| 20260901150139 | 82 | 0 | 0.0 | 0.0 | 0.00 | 0.15 | 0.00 | 73 | 1023.0 |
| 20260901150040 | 82 | 5 | 0.0 | 0.0 | 0.00 | 0.15 | 0.00 | 73 | 1023.1 |
| 20260901145941 | 82 | 318 | 0.0 | 0.0 | 0.00 | 0.15 | 0.00 | 72 | 1023.0 |
| 20260901145840 | 82 | 318 | 0.0 | 0.0 | 0.00 | 0.15 | 0.00 | 73 | 1023.2 |
| 20260901145737 | 82 | 339 | 0.0 | 0.0 | 0.00 | 0.15 | 0.00 | 73 | 1023.1 |
| 20260901145637 | 82 | 337 | 0.0 | 0.0 | 0.00 | 0.15 | 0.00 | 73 | 1023.1 |
| 20260901145536 | 82 | 343 | 0.0 | 0.0 | 0.00 | 0.15 | 0.00 | 73 | 1023.1 |
| 20260901145436 | 82 | 344 | 0.0 | 0.0 | 0.00 | 0.15 | 0.00 | 73 | 1023.1 |
| 20260901145334 | 82 | 5 | 0.0 | 0.0 | 0.00 | 0.15 | 0.00 | 73 | 1023.1 |
| 20260901145232 | 82 | 5 | 0.0 | 0.0 | 0.00 | 0.15 | 0.00 | 75 | 1023.1 |
| 20260901145133 | 82 | 326 | 0.0 | 0.0 | 0.00 | 0.15 | 0.00 | 73 | 1023.1 |
| 20260901145029 | 82 | 325 | 0.0 | 0.0 | 0.00 | 0.15 | 0.00 | 74 | 1023.1 |
| 20260901144929 | 82 | 324 | 0.0 | 0.0 | 0.00 | 0.15 | 0.00 | 75 | 1023.1 |
| 20260901144828 | 82 | 325 | 0.0 | 0.0 | 0.00 | 0.15 | 0.00 | 75 | 1023.1 |
| 20260901144725 | 82 | 349 | 0.0 | 0.0 | 0.00 | 0.15 | 0.00 | 73 | 1023.1 |
| 20260901144620 | 82 | 355 | 0.0 | 0.0 | 0.00 | 0.15 | 0.00 | 76 | 1023.2 |
| 20260901144519 | 82 | 350 | 0.0 | 0.0 | 0.00 | 0.15 | 0.00 | 74 | 1023.1 |
| 20260901144419 | 82 | 348 | 0.0 | 0.0 | 0.00 | 0.15 | 0.00 | 76 | 1023.1 |
| 20260901144316 | 82 | 17 | 0.0 | 0.0 | 0.00 | 0.15 | 0.00 | 76 | 1023.2 |
| 20260901144216 | 82 | 342 | 0.0 | 0.0 | 0.00 | 0.15 | 0.00 | 76 | 1023.1 |
| 20260901144112 | 82 | 335 | 0.0 | 0.0 | 0.00 | 0.15 | 0.00 | 75 | 1023.1 |
| 20260901144012 | 82 | 335 | 0.0 | 0.0 | 0.00 | 0.15 | 0.00 | 76 | 1023.1 |
| 20260901143911 | 82 | 332 | 0.0 | 0.0 | 0.00 | 0.15 | 0.00 | 76 | 1023.2 |
| 20260901143812 | 82 | 333 | 0.0 | 0.0 | 0.00 | 0.15 | 0.00 | 76 | 1023.1 |
| 20260901143709 | 81 | 335 | 0.0 | 0.0 | 0.00 | 0.15 | 0.00 | 76 | 1023.1 |
| 20260901143607 | 82 | 335 | 0.0 | 0.0 | 0.00 | 0.15 | 0.00 | 75 | 1023.1 |
| 20260901143507 | 82 | 315 | 0.0 | 0.0 | 0.00 | 0.15 | 0.00 | 77 | 1023.1 |
| 20260901143407 | 81 | 337 | 0.0 | 0.0 | 0.00 | 0.15 | 0.00 | 76 | 1023.1 |
| 20260901143306 | 81 | 337 | 0.0 | 0.0 | 0.00 | 0.15 | 0.00 | 76 | 1023.1 |
| 20260901143203 | 81 | 331 | 0.0 | 0.0 | 0.00 | 0.15 | 0.00 | 77 | 1023.1 |
| 20260901143057 | 81 | 331 | 0.0 | 0.0 | 0.00 | 0.15 | 0.00 | 76 | 1023.1 |
| 20260901142958 | 81 | 336 | 0.0 | 0.0 | 0.00 | 0.15 | 0.00 | 77 | 1023.1 |
| 20260901142856 | 81 | 338 | 0.0 | 0.0 | 0.00 | 0.15 | 0.00 | 76 | 1023.1 |
| 20260901142756 | 81 | 337 | 0.0 | 0.0 | 0.00 | 0.15 | 0.00 | 77 | 1023.1 |
| 20260901142654 | 81 | 338 | 0.0 | 0.0 | 0.00 | 0.15 | 0.00 | 77 | 1023.1 |
| 20260901142550 | 81 | 337 | 0.0 | 0.0 | 0.00 | 0.15 | 0.00 | 78 | 1023.1 |
| 20260901142447 | 81 | 338 | 0.0 | 0.0 | 0.00 | 0.15 | 0.00 | 78 | 1023.1 |
| 20260901142346 | 81 | 338 | 0.0 | 0.0 | 0.00 | 0.15 | 0.00 | 77 | 1023.1 |
| 20260901142247 | 81 | 338 | 0.0 | 0.0 | 0.00 | 0.15 | 0.00 | 78 | 1023.1 |
| 20260901142147 | 80 | 340 | 0.0 | 0.0 | 0.00 | 0.15 | 0.00 | 77 | 1023.0 |
| 20260901142046 | 80 | 340 | 0.0 | 0.0 | 0.00 | 0.15 | 0.00 | 78 | 1023.0 |
| 20260901141947 | 80 | 340 | 0.0 | 0.0 | 0.00 | 0.15 | 0.00 | 77 | 1023.0 |
| 20260901141845 | 80 | 341 | 0.0 | 0.0 | 0.00 | 0.15 | 0.00 | 76 | 1023.0 |
| 20260901141744 | 80 | 340 | 0.0 | 0.0 | 0.00 | 0.15 | 0.00 | 76 | 1023.1 |
| 20260901141641 | 80 | 342 | 0.0 | 0.0 | 0.00 | 0.15 | 0.00 | 78 | 1023.0 |
| 20260901141535 | 80 | 342 | 0.0 | 0.0 | 0.00 | 0.15 | 0.00 | 77 | 1023.0 |
| 20260901141435 | 80 | 342 | 0.0 | 0.0 | 0.00 | 0.15 | 0.00 | 76 | 1023.0 |
| 20260901141334 | 80 | 342 | 0.0 | 0.0 | 0.00 | 0.15 | 0.00 | 76 | 1023.0 |
| 20260901141233 | 80 | 331 | 0.0 | 0.0 | 0.00 | 0.15 | 0.00 | 76 | 1023.0 |
| 20260901141132 | 80 | 319 | 0.0 | 0.0 | 0.00 | 0.15 | 0.00 | 75 | 1023.0 |
| 20260901141029 | 80 | 327 | 0.0 | 0.0 | 0.00 | 0.15 | 0.00 | 77 | 1023.0 |
| 20260901140930 | 80 | 329 | 0.0 | 0.0 | 0.00 | 0.15 | 0.00 | 77 | 1023.0 |
| 20260901140830 | 80 | 330 | 0.0 | 0.0 | 0.00 | 0.15 | 0.00 | 77 | 1023.0 |
| 20260901140727 | 80 | 329 | 0.0 | 0.0 | 0.00 | 0.15 | 0.00 | 76 | 1023.0 |
| 20260901140626 | 80 | 321 | 0.0 | 0.0 | 0.00 | 0.15 | 0.00 | 76 | 1023.0 |
| 20260901140525 | 80 | 319 | 0.0 | 0.0 | 0.00 | 0.15 | 0.00 | 76 | 1023.0 |
| 20260901140424 | 80 | 322 | 0.0 | 0.0 | 0.00 | 0.15 | 0.00 | 76 | 1023.0 |
| 20260901140323 | 80 | 319 | 0.0 | 0.0 | 0.00 | 0.15 | 0.00 | 76 | 1023.0 |
| 20260901140223 | 80 | 321 | 0.0 | 0.0 | 0.00 | 0.15 | 0.00 | 78 | 1023.0 |
| 20260901140120 | 80 | 336 | 0.0 | 0.0 | 0.00 | 0.15 | 0.00 | 78 | 1022.9 |
| 20260901140014 | 80 | 338 | 0.0 | 0.0 | 0.00 | 0.15 | 0.00 | 78 | 1023.0 |
| 20260901135914 | 80 | 338 | 0.0 | 0.0 | 0.00 | 0.15 | 0.00 | 79 | 1023.0 |
| 20260901135811 | 80 | 339 | 0.0 | 0.0 | 0.00 | 0.15 | 0.00 | 79 | 1023.0 |
| 20260901135712 | 79 | 329 | 0.0 | 0.0 | 0.00 | 0.15 | 0.00 | 79 | 1022.9 |
| 20260901135609 | 79 | 326 | 0.0 | 0.0 | 0.00 | 0.15 | 0.00 | 79 | 1023.0 |
| 20260901135506 | 79 | 326 | 0.0 | 0.0 | 0.00 | 0.15 | 0.00 | 78 | 1023.0 |
| 20260901135403 | 79 | 326 | 0.0 | 0.0 | 0.00 | 0.15 | 0.00 | 76 | 1023.0 |
| 20260901135305 | 79 | 326 | 0.0 | 0.0 | 0.00 | 0.15 | 0.00 | 77 | 1022.9 |
| 20260901135204 | 79 | 316 | 0.0 | 0.0 | 0.00 | 0.15 | 0.00 | 77 | 1022.9 |
| 20260901135104 | 79 | 325 | 0.0 | 0.0 | 0.00 | 0.15 | 0.00 | 78 | 1023.0 |
| 20260901134958 | 80 | 324 | 0.0 | 0.0 | 0.00 | 0.15 | 0.00 | 78 | 1023.0 |
| 20260901134856 | 80 | 324 | 0.0 | 0.0 | 0.00 | 0.15 | 0.00 | 78 | 1022.9 |
| 20260901134758 | 80 | 313 | 0.0 | 0.0 | 0.00 | 0.15 | 0.00 | 78 | 1023.0 |
| 20260901134657 | 80 | 344 | 0.0 | 0.0 | 0.00 | 0.15 | 0.00 | 78 | 1023.0 |
| 20260901134557 | 80 | 331 | 0.0 | 0.0 | 0.00 | 0.15 | 0.00 | 79 | 1023.0 |
| 20260901134449 | 80 | 313 | 0.0 | 0.0 | 0.00 | 0.15 | 0.00 | 79 | 1023.0 |
| 20260901134347 | 80 | 348 | 0.0 | 0.0 | 0.00 | 0.15 | 0.00 | 79 | 1022.9 |
| 20260901134247 | 80 | 325 | 0.0 | 0.0 | 0.00 | 0.15 | 0.00 | 78 | 1023.0 |
| 20260901134146 | 80 | 313 | 0.0 | 0.0 | 0.00 | 0.15 | 0.00 | 79 | 1023.0 |
| 20260901134048 | 80 | 327 | 0.0 | 0.0 | 0.00 | 0.15 | 0.00 | 79 | 1022.9 |
| 20260901133947 | 80 | 331 | 0.0 | 0.0 | 0.00 | 0.15 | 0.00 | 81 | 1022.9 |
| 20260901133846 | 80 | 329 | 0.0 | 0.0 | 0.00 | 0.15 | 0.00 | 82 | 1022.9 |
| 20260901133744 | 80 | 337 | 0.0 | 0.0 | 0.00 | 0.15 | 0.00 | 82 | 1023.0 |
| 20260901133644 | 80 | 346 | 0.0 | 0.0 | 0.00 | 0.15 | 0.00 | 81 | 1022.9 |
| 20260901133542 | 80 | 346 | 0.0 | 0.0 | 0.00 | 0.15 | 0.00 | 81 | 1022.9 |
| 20260901133442 | 80 | 344 | 0.0 | 0.0 | 0.00 | 0.15 | 0.00 | 81 | 1022.9 |
| 20260901133341 | 80 | 341 | 0.0 | 0.0 | 0.00 | 0.15 | 0.00 | 81 | 1022.9 |
| 20260901133239 | 80 | 338 | 0.0 | 0.0 | 0.00 | 0.15 | 0.00 | 81 | 1022.8 |
| 20260901133137 | 80 | 337 | 0.0 | 0.0 | 0.00 | 0.15 | 0.00 | 82 | 1022.8 |
| 20260901133036 | 80 | 337 | 0.0 | 0.0 | 0.00 | 0.15 | 0.00 | 81 | 1022.8 |
| 20260901132929 | 80 | 337 | 0.0 | 0.0 | 0.00 | 0.15 | 0.00 | 82 | 1022.8 |
| 20260901132829 | 80 | 337 | 0.0 | 0.0 | 0.00 | 0.15 | 0.00 | 81 | 1022.8 |
| 20260901132730 | 80 | 337 | 0.0 | 0.0 | 0.00 | 0.15 | 0.00 | 81 | 1022.8 |
| 20260901132627 | 80 | 337 | 0.0 | 0.0 | 0.00 | 0.15 | 0.00 | 80 | 1022.9 |
| 20260901132526 | 80 | 337 | 0.0 | 0.0 | 0.00 | 0.15 | 0.00 | 81 | 1022.8 |
| 20260901132426 | 80 | 337 | 0.0 | 0.0 | 0.00 | 0.15 | 0.00 | 81 | 1022.8 |
| 20260901132324 | 80 | 336 | 0.0 | 0.0 | 0.00 | 0.15 | 0.00 | 81 | 1022.8 |
| 20260901132223 | 80 | 336 | 0.0 | 0.0 | 0.00 | 0.15 | 0.00 | 81 | 1022.9 |
| 20260901132122 | 80 | 336 | 0.0 | 0.0 | 0.00 | 0.15 | 0.00 | 81 | 1022.8 |
| 20260901132020 | 80 | 336 | 0.0 | 0.0 | 0.00 | 0.15 | 0.00 | 81 | 1022.9 |
| 20260901131919 | 80 | 336 | 0.0 | 0.0 | 0.00 | 0.15 | 0.00 | 80 | 1022.8 |
| 20260901131818 | 80 | 336 | 0.0 | 0.0 | 0.00 | 0.15 | 0.00 | 80 | 1022.8 |
| 20260901131717 | 80 | 311 | 0.0 | 0.0 | 0.00 | 0.15 | 0.00 | 79 | 1022.8 |
| 20260901131616 | 80 | 311 | 0.0 | 0.0 | 0.00 | 0.15 | 0.00 | 80 | 1022.9 |
| 20260901131513 | 80 | 311 | 0.0 | 0.0 | 0.00 | 0.15 | 0.00 | 80 | 1022.9 |
| 20260901131405 | 80 | 310 | 0.0 | 0.0 | 0.00 | 0.15 | 0.00 | 80 | 1022.9 |
| 20260901131306 | 80 | 310 | 0.0 | 0.0 | 0.00 | 0.15 | 0.00 | 81 | 1022.9 |
| 20260901131205 | 80 | 281 | 0.0 | 0.0 | 0.00 | 0.15 | 0.00 | 81 | 1022.8 |
| 20260901131106 | 80 | 279 | 0.0 | 0.0 | 0.00 | 0.15 | 0.00 | 80 | 1022.9 |
| 20260901131004 | 80 | 278 | 0.0 | 0.0 | 0.00 | 0.15 | 0.00 | 81 | 1022.8 |
| 20260901130902 | 80 | 273 | 0.0 | 0.0 | 0.00 | 0.15 | 0.00 | 80 | 1022.8 |
| 20260901130802 | 80 | 258 | 0.0 | 0.0 | 0.00 | 0.15 | 0.00 | 79 | 1022.8 |
| 20260901130701 | 79 | 246 | 0.0 | 0.0 | 0.00 | 0.15 | 0.00 | 78 | 1022.9 |
| 20260901130559 | 79 | 246 | 0.0 | 0.0 | 0.00 | 0.15 | 0.00 | 79 | 1022.8 |
| 20260901130458 | 79 | 238 | 0.0 | 0.0 | 0.00 | 0.15 | 0.00 | 79 | 1022.9 |
| 20260901130357 | 79 | 238 | 0.0 | 0.0 | 0.00 | 0.15 | 0.00 | 80 | 1022.9 |
| 20260901130256 | 79 | 238 | 0.0 | 0.0 | 0.00 | 0.15 | 0.00 | 80 | 1022.8 |
| 20260901130155 | 79 | 237 | 0.0 | 0.0 | 0.00 | 0.15 | 0.00 | 79 | 1022.9 |
| 20260901130055 | 79 | 281 | 0.0 | 0.0 | 0.00 | 0.15 | 0.00 | 78 | 1022.8 |
| 20260901125952 | 79 | 239 | 0.0 | 0.0 | 0.00 | 0.15 | 0.00 | 79 | 1022.8 |
| 20260901125845 | 79 | 239 | 0.0 | 0.0 | 0.00 | 0.15 | 0.00 | 80 | 1022.9 |
| 20260901125745 | 79 | 239 | 0.0 | 0.0 | 0.00 | 0.15 | 0.00 | 79 | 1022.9 |
| 20260901125646 | 79 | 239 | 0.0 | 0.0 | 0.00 | 0.15 | 0.00 | 79 | 1022.8 |
| 20260901125543 | 79 | 239 | 0.0 | 0.0 | 0.00 | 0.15 | 0.00 | 79 | 1022.9 |
| 20260901125442 | 79 | 239 | 0.0 | 0.0 | 0.00 | 0.15 | 0.00 | 80 | 1022.8 |
| 20260901125342 | 79 | 239 | 0.0 | 0.0 | 0.00 | 0.15 | 0.00 | 80 | 1022.8 |
| 20260901125240 | 79 | 239 | 0.0 | 0.0 | 0.00 | 0.15 | 0.00 | 80 | 1022.8 |
| 20260901125139 | 79 | 239 | 0.0 | 0.0 | 0.00 | 0.15 | 0.00 | 80 | 1022.8 |
| 20260901125037 | 79 | 239 | 0.0 | 0.0 | 0.00 | 0.15 | 0.00 | 80 | 1022.8 |
| 20260901124935 | 79 | 257 | 0.0 | 0.0 | 0.00 | 0.15 | 0.00 | 80 | 1022.8 |
| 20260901124848 | 79 | 308 | 0.0 | 0.0 | 0.00 | 0.15 | 0.00 | 80 | 1022.8 |
| 20260901124733 | 79 | 322 | 0.0 | 0.0 | 0.00 | 0.15 | 0.00 | 80 | 1022.8 |
| 20260901124643 | 79 | 322 | 0.0 | 0.0 | 0.00 | 0.15 | 0.00 | 80 | 1022.7 |
| 20260901124541 | 79 | 321 | 0.0 | 0.0 | 0.00 | 0.15 | 0.00 | 80 | 1022.8 |
| 20260901124440 | 79 | 319 | 0.0 | 0.0 | 0.00 | 0.15 | 0.00 | 81 | 1022.7 |
| 20260901124324 | 79 | 319 | 0.0 | 0.0 | 0.00 | 0.15 | 0.00 | 81 | 1022.8 |
| 20260901124223 | 79 | 319 | 0.0 | 0.0 | 0.00 | 0.15 | 0.00 | 80 | 1022.8 |
| 20260901124123 | 79 | 30 | 0.0 | 0.0 | 0.00 | 0.15 | 0.00 | 81 | 1022.8 |
| 20260901124021 | 79 | 36 | 0.0 | 0.0 | 0.00 | 0.15 | 0.00 | 81 | 1022.8 |
| 20260901123919 | 79 | 36 | 0.0 | 0.0 | 0.00 | 0.15 | 0.00 | 80 | 1022.8 |
| 20260901123819 | 79 | 36 | 0.0 | 0.0 | 0.00 | 0.15 | 0.00 | 79 | 1022.9 |
| 20260901123716 | 79 | 36 | 0.0 | 0.0 | 0.00 | 0.15 | 0.00 | 79 | 1022.7 |
| 20260901123617 | 79 | 36 | 0.0 | 0.0 | 0.00 | 0.15 | 0.00 | 78 | 1022.7 |
| 20260901123515 | 79 | 20 | 0.0 | 0.0 | 0.00 | 0.15 | 0.00 | 78 | 1022.8 |
| 20260901123413 | 79 | 17 | 0.0 | 0.0 | 0.00 | 0.15 | 0.00 | 78 | 1022.8 |
| 20260901123308 | 78 | 17 | 0.0 | 0.0 | 0.00 | 0.15 | 0.00 | 78 | 1022.8 |
| 20260901123206 | 78 | 17 | 0.0 | 0.0 | 0.00 | 0.15 | 0.00 | 78 | 1022.9 |
| 20260901123108 | 78 | 17 | 0.0 | 0.0 | 0.00 | 0.15 | 0.00 | 79 | 1022.8 |
| 20260901123007 | 78 | 17 | 0.0 | 0.0 | 0.00 | 0.15 | 0.00 | 78 | 1022.8 |
| 20260901122907 | 78 | 17 | 0.0 | 0.0 | 0.00 | 0.15 | 0.00 | 78 | 1022.7 |
| 20260901122759 | 78 | 17 | 0.0 | 0.0 | 0.00 | 0.15 | 0.00 | 80 | 1022.6 |
| 20260901122659 | 78 | 17 | 0.0 | 0.0 | 0.00 | 0.15 | 0.00 | 79 | 1022.7 |
| 20260901122559 | 78 | 17 | 0.0 | 0.0 | 0.00 | 0.15 | 0.00 | 79 | 1022.7 |
| 20260901122459 | 78 | 17 | 0.0 | 0.0 | 0.00 | 0.15 | 0.00 | 80 | 1022.7 |
| 20260901122358 | 78 | 17 | 0.0 | 0.0 | 0.00 | 0.15 | 0.00 | 80 | 1022.6 |
| 20260901122253 | 78 | 17 | 0.0 | 0.0 | 0.00 | 0.15 | 0.00 | 80 | 1022.6 |
| 20260901122152 | 78 | 17 | 0.0 | 0.0 | 0.00 | 0.15 | 0.00 | 80 | 1022.6 |
| 20260901122052 | 77 | 17 | 0.0 | 0.0 | 0.00 | 0.15 | 0.00 | 81 | 1022.6 |
| 20260901121952 | 77 | 17 | 0.0 | 0.0 | 0.00 | 0.15 | 0.00 | 81 | 1022.6 |
| 20260901121851 | 77 | 17 | 0.0 | 0.0 | 0.00 | 0.15 | 0.00 | 81 | 1022.6 |
| 20260901121748 | 77 | 17 | 0.0 | 0.0 | 0.00 | 0.15 | 0.00 | 81 | 1022.5 |
| 20260901121646 | 77 | 17 | 0.0 | 0.0 | 0.00 | 0.15 | 0.00 | 82 | 1022.6 |
| 20260901121546 | 77 | 17 | 0.0 | 0.0 | 0.00 | 0.15 | 0.00 | 81 | 1022.5 |
| 20260901121446 | 77 | 17 | 0.0 | 0.0 | 0.00 | 0.15 | 0.00 | 81 | 1022.5 |
| 20260901121346 | 77 | 17 | 0.0 | 0.0 | 0.00 | 0.15 | 0.00 | 82 | 1022.5 |
| 20260901121240 | 77 | 17 | 0.0 | 0.0 | 0.00 | 0.15 | 0.00 | 81 | 1022.5 |
| 20260901121138 | 77 | 217 | 0.0 | 0.0 | 0.00 | 0.15 | 0.00 | 81 | 1022.5 |
| 20260901121039 | 77 | 215 | 0.0 | 0.0 | 0.00 | 0.15 | 0.00 | 82 | 1022.5 |
| 20260901120938 | 76 | 292 | 0.0 | 0.0 | 0.00 | 0.15 | 0.00 | 81 | 1022.4 |
| 20260901120835 | 76 | 281 | 0.0 | 0.0 | 0.00 | 0.15 | 0.00 | 81 | 1022.4 |
| 20260901120736 | 76 | 281 | 0.0 | 0.0 | 0.00 | 0.15 | 0.00 | 80 | 1022.4 |
| 20260901120633 | 76 | 281 | 0.0 | 0.0 | 0.00 | 0.15 | 0.00 | 80 | 1022.4 |
| 20260901120531 | 76 | 280 | 0.0 | 0.0 | 0.00 | 0.15 | 0.00 | 81 | 1022.3 |
| 20260901120432 | 76 | 280 | 0.0 | 0.0 | 0.00 | 0.15 | 0.00 | 81 | 1022.4 |
| 20260901120329 | 76 | 280 | 0.0 | 0.0 | 0.00 | 0.15 | 0.00 | 81 | 1022.3 |
| 20260901120226 | 76 | 281 | 0.0 | 0.0 | 0.00 | 0.15 | 0.00 | 80 | 1022.3 |
| 20260901120123 | 76 | 281 | 0.0 | 0.0 | 0.00 | 0.15 | 0.00 | 80 | 1022.3 |
| 20260901120025 | 76 | 280 | 0.0 | 0.0 | 0.00 | 0.15 | 0.00 | 80 | 1022.3 |
| 20260901115923 | 76 | 280 | 0.0 | 0.0 | 0.00 | 0.15 | 0.00 | 80 | 1022.3 |
| 20260901115824 | 76 | 280 | 0.0 | 0.0 | 0.00 | 0.15 | 0.00 | 80 | 1022.3 |
| 20260901115715 | 76 | 280 | 0.0 | 0.0 | 0.00 | 0.15 | 0.00 | 80 | 1022.3 |
| 20260901115616 | 76 | 281 | 0.0 | 0.0 | 0.00 | 0.15 | 0.00 | 80 | 1022.3 |
| 20260901115514 | 76 | 281 | 0.0 | 0.0 | 0.00 | 0.15 | 0.00 | 80 | 1022.3 |
| 20260901115416 | 76 | 280 | 0.0 | 0.0 | 0.00 | 0.15 | 0.00 | 80 | 1022.1 |
| 20260901115314 | 76 | 280 | 0.0 | 0.0 | 0.00 | 0.15 | 0.00 | 80 | 1022.2 |
| 20260901115207 | 75 | 280 | 0.0 | 0.0 | 0.00 | 0.15 | 0.00 | 80 | 1022.2 |
| 20260901115108 | 75 | 280 | 0.0 | 0.0 | 0.00 | 0.15 | 0.00 | 80 | 1022.3 |
| 20260901115008 | 75 | 280 | 0.0 | 0.0 | 0.00 | 0.15 | 0.00 | 80 | 1022.3 |
| 20260901114907 | 75 | 280 | 0.0 | 0.0 | 0.00 | 0.15 | 0.00 | 81 | 1022.2 |
| 20260901114807 | 75 | 280 | 0.0 | 0.0 | 0.00 | 0.15 | 0.00 | 81 | 1022.2 |
| 20260901114702 | 75 | 280 | 0.0 | 0.0 | 0.00 | 0.15 | 0.00 | 81 | 1022.2 |
| 20260901114601 | 75 | 280 | 0.0 | 0.0 | 0.00 | 0.15 | 0.00 | 81 | 1022.2 |
| 20260901114502 | 75 | 280 | 0.0 | 0.0 | 0.00 | 0.15 | 0.00 | 82 | 1022.2 |
| 20260901114402 | 75 | 280 | 0.0 | 0.0 | 0.00 | 0.15 | 0.00 | 82 | 1022.1 |
| 20260901114302 | 75 | 280 | 0.0 | 0.0 | 0.00 | 0.15 | 0.00 | 82 | 1022.1 |
| 20260901114155 | 75 | 280 | 0.0 | 0.0 | 0.00 | 0.15 | 0.00 | 82 | 1022.2 |
| 20260901114055 | 75 | 280 | 0.0 | 0.0 | 0.00 | 0.15 | 0.00 | 82 | 1022.1 |
| 20260901113954 | 75 | 280 | 0.0 | 0.0 | 0.00 | 0.15 | 0.00 | 82 | 1022.2 |
| 20260901113853 | 75 | 280 | 0.0 | 0.0 | 0.00 | 0.15 | 0.00 | 82 | 1022.0 |
| 20260901113752 | 75 | 280 | 0.0 | 0.0 | 0.00 | 0.15 | 0.00 | 82 | 1022.0 |
| 20260901113646 | 75 | 267 | 0.0 | 0.0 | 0.00 | 0.15 | 0.00 | 82 | 1022.1 |
| 20260901113545 | 74 | 275 | 0.0 | 0.0 | 0.00 | 0.15 | 0.00 | 82 | 1022.0 |
| 20260901113446 | 74 | 279 | 0.0 | 0.0 | 0.00 | 0.15 | 0.00 | 82 | 1022.0 |
| 20260901113345 | 74 | 279 | 0.0 | 0.0 | 0.00 | 0.15 | 0.00 | 82 | 1022.0 |
| 20260901113245 | 74 | 280 | 0.0 | 0.0 | 0.00 | 0.15 | 0.00 | 82 | 1022.0 |
| 20260901113142 | 74 | 280 | 0.0 | 0.0 | 0.00 | 0.15 | 0.00 | 81 | 1022.0 |
| 20260901113040 | 74 | 269 | 0.0 | 0.0 | 0.00 | 0.15 | 0.00 | 81 | 1021.9 |
| 20260901112940 | 74 | 277 | 0.0 | 0.0 | 0.00 | 0.15 | 0.00 | 81 | 1022.0 |
| 20260901112838 | 74 | 277 | 0.0 | 0.0 | 0.00 | 0.15 | 0.00 | 81 | 1021.9 |
| 20260901112740 | 74 | 277 | 0.0 | 0.0 | 0.00 | 0.15 | 0.00 | 82 | 1021.9 |
| 20260901112634 | 74 | 277 | 0.0 | 0.0 | 0.00 | 0.15 | 0.00 | 82 | 1022.0 |
| 20260901112533 | 74 | 277 | 0.0 | 0.0 | 0.00 | 0.15 | 0.00 | 82 | 1021.9 |
| 20260901112432 | 74 | 277 | 0.0 | 0.0 | 0.00 | 0.15 | 0.00 | 82 | 1021.7 |
| 20260901112331 | 74 | 277 | 0.0 | 0.0 | 0.00 | 0.15 | 0.00 | 82 | 1021.9 |
| 20260901112230 | 74 | 277 | 0.0 | 0.0 | 0.00 | 0.15 | 0.00 | 82 | 1021.7 |
| 20260901112125 | 74 | 277 | 0.0 | 0.0 | 0.00 | 0.15 | 0.00 | 82 | 1021.7 |
| 20260901112023 | 74 | 277 | 0.0 | 0.0 | 0.00 | 0.15 | 0.00 | 82 | 1021.7 |
| 20260901111924 | 74 | 277 | 0.0 | 0.0 | 0.00 | 0.15 | 0.00 | 82 | 1021.7 |
| 20260901111824 | 74 | 277 | 0.0 | 0.0 | 0.00 | 0.15 | 0.00 | 82 | 1021.7 |
| 20260901111724 | 74 | 277 | 0.0 | 0.0 | 0.00 | 0.15 | 0.00 | 82 | 1021.6 |
| 20260901111623 | 74 | 277 | 0.0 | 0.0 | 0.00 | 0.15 | 0.00 | 82 | 1021.7 |
| 20260901111521 | 74 | 277 | 0.0 | 0.0 | 0.00 | 0.15 | 0.00 | 82 | 1021.7 |
| 20260901111418 | 74 | 277 | 0.0 | 0.0 | 0.00 | 0.15 | 0.00 | 82 | 1021.6 |
| 20260901111320 | 74 | 277 | 0.0 | 0.0 | 0.00 | 0.15 | 0.00 | 82 | 1021.7 |
| 20260901111217 | 74 | 277 | 0.0 | 0.0 | 0.00 | 0.15 | 0.00 | 82 | 1021.7 |
| 20260901111111 | 74 | 277 | 0.0 | 0.0 | 0.00 | 0.15 | 0.00 | 82 | 1021.6 |
| 20260901111011 | 74 | 277 | 0.0 | 0.0 | 0.00 | 0.15 | 0.00 | 82 | 1021.6 |
| 20260901110911 | 74 | 277 | 0.0 | 0.0 | 0.00 | 0.15 | 0.00 | 82 | 1021.6 |
| 20260901110809 | 74 | 277 | 0.0 | 0.0 | 0.00 | 0.15 | 0.00 | 82 | 1021.6 |
| 20260901110708 | 74 | 277 | 0.0 | 0.0 | 0.00 | 0.15 | 0.00 | 82 | 1021.6 |
| 20260901110602 | 74 | 277 | 0.0 | 0.0 | 0.00 | 0.15 | 0.00 | 82 | 1021.6 |
| 20260901110501 | 74 | 277 | 0.0 | 0.0 | 0.00 | 0.15 | 0.00 | 82 | 1021.6 |
| 20260901110400 | 74 | 277 | 0.0 | 0.0 | 0.00 | 0.15 | 0.00 | 82 | 1021.6 |
| 20260901110300 | 74 | 277 | 0.0 | 0.0 | 0.00 | 0.15 | 0.00 | 82 | 1021.7 |
| 20260901110202 | 74 | 277 | 0.0 | 0.0 | 0.00 | 0.15 | 0.00 | 82 | 1021.6 |
| 20260901110058 | 74 | 277 | 0.0 | 0.0 | 0.00 | 0.15 | 0.00 | 82 | 1021.5 |
| 20260901105958 | 74 | 277 | 0.0 | 0.0 | 0.00 | 0.15 | 0.00 | 82 | 1021.6 |
| 20260901105856 | 74 | 277 | 0.0 | 0.0 | 0.00 | 0.15 | 0.00 | 82 | 1021.6 |
| 20260901105758 | 74 | 277 | 0.0 | 0.0 | 0.00 | 0.15 | 0.00 | 82 | 1021.6 |
| 20260901105656 | 74 | 277 | 0.0 | 0.0 | 0.00 | 0.15 | 0.00 | 82 | 1021.6 |
| 20260901105546 | 74 | 277 | 0.0 | 0.0 | 0.00 | 0.15 | 0.00 | 82 | 1021.6 |
| 20260901105446 | 74 | 277 | 0.0 | 0.0 | 0.00 | 0.15 | 0.00 | 82 | 1021.5 |
| 20260901105344 | 74 | 277 | 0.0 | 0.0 | 0.00 | 0.15 | 0.00 | 82 | 1021.5 |
| 20260901105244 | 74 | 277 | 0.0 | 0.0 | 0.00 | 0.15 | 0.00 | 82 | 1021.5 |
| 20260901105145 | 74 | 277 | 0.0 | 0.0 | 0.00 | 0.15 | 0.00 | 82 | 1021.5 |
| 20260901105046 | 74 | 277 | 0.0 | 0.0 | 0.00 | 0.15 | 0.00 | 82 | 1021.5 |
| 20260901104942 | 74 | 277 | 0.0 | 0.0 | 0.00 | 0.15 | 0.00 | 82 | 1021.4 |
| 20260901104844 | 74 | 277 | 0.0 | 0.0 | 0.00 | 0.15 | 0.00 | 82 | 1021.5 |
| 20260901104742 | 74 | 277 | 0.0 | 0.0 | 0.00 | 0.15 | 0.00 | 82 | 1021.4 |
| 20260901104640 | 74 | 277 | 0.0 | 0.0 | 0.00 | 0.15 | 0.00 | 82 | 1021.4 |
| 20260901104538 | 74 | 277 | 0.0 | 0.0 | 0.00 | 0.15 | 0.00 | 82 | 1021.5 |
| 20260901104438 | 74 | 277 | 0.0 | 0.0 | 0.00 | 0.15 | 0.00 | 82 | 1021.5 |
| 20260901104337 | 74 | 277 | 0.0 | 0.0 | 0.00 | 0.15 | 0.00 | 82 | 1021.5 |
| 20260901104236 | 74 | 277 | 0.0 | 0.0 | 0.00 | 0.15 | 0.00 | 82 | 1021.4 |
| 20260901104134 | 74 | 277 | 0.0 | 0.0 | 0.00 | 0.15 | 0.00 | 82 | 1021.4 |
| 20260901104027 | 74 | 277 | 0.0 | 0.0 | 0.00 | 0.15 | 0.00 | 82 | 1021.4 |
| 20260901103926 | 74 | 277 | 0.0 | 0.0 | 0.00 | 0.15 | 0.00 | 82 | 1021.5 |
| 20260901103828 | 74 | 277 | 0.0 | 0.0 | 0.00 | 0.15 | 0.00 | 82 | 1021.5 |
| 20260901103725 | 74 | 277 | 0.0 | 0.0 | 0.00 | 0.15 | 0.00 | 82 | 1021.4 |
| 20260901103624 | 74 | 277 | 0.0 | 0.0 | 0.00 | 0.15 | 0.00 | 81 | 1021.4 |
| 20260901103523 | 74 | 277 | 0.0 | 0.0 | 0.00 | 0.15 | 0.00 | 82 | 1021.4 |
| 20260901103422 | 74 | 277 | 0.0 | 0.0 | 0.00 | 0.15 | 0.00 | 81 | 1021.4 |
| 20260901103322 | 74 | 277 | 0.0 | 0.0 | 0.00 | 0.15 | 0.00 | 81 | 1021.4 |
| 20260901103219 | 74 | 277 | 0.0 | 0.0 | 0.00 | 0.15 | 0.00 | 81 | 1021.4 |
| 20260901103118 | 74 | 277 | 0.0 | 0.0 | 0.00 | 0.15 | 0.00 | 81 | 1021.4 |
| 20260901103017 | 74 | 277 | 0.0 | 0.0 | 0.00 | 0.15 | 0.00 | 81 | 1021.4 |
| 20260901102915 | 74 | 277 | 0.0 | 0.0 | 0.00 | 0.15 | 0.00 | 81 | 1021.4 |
| 20260901102812 | 74 | 277 | 0.0 | 0.0 | 0.00 | 0.15 | 0.00 | 81 | 1021.4 |
| 20260901102714 | 74 | 277 | 0.0 | 0.0 | 0.00 | 0.15 | 0.00 | 81 | 1021.3 |
| 20260901102612 | 74 | 277 | 0.0 | 0.0 | 0.00 | 0.15 | 0.00 | 81 | 1021.3 |
| 20260901102506 | 74 | 277 | 0.0 | 0.0 | 0.00 | 0.15 | 0.00 | 81 | 1021.3 |
| 20260901102404 | 74 | 277 | 0.0 | 0.0 | 0.00 | 0.15 | 0.00 | 81 | 1021.3 |
| 20260901102306 | 74 | 277 | 0.0 | 0.0 | 0.00 | 0.15 | 0.00 | 81 | 1021.3 |
| 20260901102203 | 74 | 277 | 0.0 | 0.0 | 0.00 | 0.15 | 0.00 | 81 | 1021.3 |
| 20260901102102 | 75 | 277 | 0.0 | 0.0 | 0.00 | 0.15 | 0.00 | 81 | 1021.3 |
| 20260901102001 | 75 | 277 | 0.0 | 0.0 | 0.00 | 0.15 | 0.00 | 81 | 1021.3 |
| 20260901101859 | 75 | 277 | 0.0 | 0.0 | 0.00 | 0.15 | 0.00 | 81 | 1021.4 |
| 20260901101800 | 75 | 277 | 0.0 | 0.0 | 0.00 | 0.15 | 0.00 | 81 | 1021.3 |
| 20260901101656 | 75 | 277 | 0.0 | 0.0 | 0.00 | 0.15 | 0.00 | 81 | 1021.2 |
| 20260901101556 | 75 | 277 | 0.0 | 0.0 | 0.00 | 0.15 | 0.00 | 81 | 1021.3 |
| 20260901101455 | 75 | 277 | 0.0 | 0.0 | 0.00 | 0.15 | 0.00 | 81 | 1021.3 |
| 20260901101353 | 75 | 277 | 0.0 | 0.0 | 0.00 | 0.15 | 0.00 | 81 | 1021.2 |
| 20260901101252 | 75 | 277 | 0.0 | 0.0 | 0.00 | 0.15 | 0.00 | 81 | 1021.2 |
| 20260901101152 | 75 | 277 | 0.0 | 0.0 | 0.00 | 0.15 | 0.00 | 81 | 1021.2 |
| 20260901101050 | 75 | 277 | 0.0 | 0.0 | 0.00 | 0.15 | 0.00 | 81 | 1021.2 |
| 20260901100943 | 75 | 277 | 0.0 | 0.0 | 0.00 | 0.15 | 0.00 | 81 | 1021.2 |
| 20260901100843 | 75 | 277 | 0.0 | 0.0 | 0.00 | 0.15 | 0.00 | 81 | 1021.2 |
| 20260901100744 | 75 | 277 | 0.0 | 0.0 | 0.00 | 0.15 | 0.00 | 80 | 1021.2 |
| 20260901100642 | 75 | 277 | 0.0 | 0.0 | 0.00 | 0.15 | 0.00 | 80 | 1021.1 |
| 20260901100539 | 75 | 277 | 0.0 | 0.0 | 0.00 | 0.15 | 0.00 | 80 | 1021.2 |
| 20260901100439 | 75 | 277 | 0.0 | 0.0 | 0.00 | 0.15 | 0.00 | 80 | 1021.2 |
| 20260901100337 | 75 | 277 | 0.0 | 0.0 | 0.00 | 0.15 | 0.00 | 80 | 1021.2 |
| 20260901100236 | 75 | 277 | 0.0 | 0.0 | 0.00 | 0.15 | 0.00 | 80 | 1021.2 |
| 20260901100135 | 75 | 277 | 0.0 | 0.0 | 0.00 | 0.15 | 0.00 | 80 | 1021.2 |
| 20260901100033 | 75 | 277 | 0.0 | 0.0 | 0.00 | 0.15 | 0.00 | 80 | 1021.2 |
| 20260901095933 | 75 | 277 | 0.0 | 0.0 | 0.00 | 0.15 | 0.00 | 80 | 1021.2 |
| 20260901095832 | 75 | 277 | 0.0 | 0.0 | 0.00 | 0.15 | 0.00 | 80 | 1021.2 |
| 20260901095731 | 75 | 277 | 0.0 | 0.0 | 0.00 | 0.15 | 0.00 | 80 | 1021.2 |
| 20260901095629 | 75 | 277 | 0.0 | 0.0 | 0.00 | 0.15 | 0.00 | 80 | 1021.3 |
| 20260901095527 | 75 | 277 | 0.0 | 0.0 | 0.00 | 0.15 | 0.00 | 80 | 1021.2 |
| 20260901095422 | 75 | 277 | 0.0 | 0.0 | 0.00 | 0.15 | 0.00 | 80 | 1021.2 |
| 20260901095320 | 75 | 277 | 0.0 | 0.0 | 0.00 | 0.15 | 0.00 | 80 | 1021.2 |
| 20260901095221 | 75 | 277 | 0.0 | 0.0 | 0.00 | 0.15 | 0.00 | 80 | 1021.2 |
| 20260901095119 | 75 | 277 | 0.0 | 0.0 | 0.00 | 0.15 | 0.00 | 80 | 1021.2 |
| 20260901095018 | 75 | 277 | 0.0 | 0.0 | 0.00 | 0.15 | 0.00 | 80 | 1021.2 |
| 20260901094916 | 75 | 277 | 0.0 | 0.0 | 0.00 | 0.15 | 0.00 | 80 | 1021.2 |
| 20260901094815 | 75 | 277 | 0.0 | 0.0 | 0.00 | 0.15 | 0.00 | 80 | 1021.2 |
| 20260901094714 | 75 | 277 | 0.0 | 0.0 | 0.00 | 0.15 | 0.00 | 80 | 1021.2 |
| 20260901094613 | 75 | 277 | 0.0 | 0.0 | 0.00 | 0.15 | 0.00 | 80 | 1021.2 |
| 20260901094512 | 75 | 277 | 0.0 | 0.0 | 0.00 | 0.15 | 0.00 | 81 | 1021.3 |
| 20260901094405 | 75 | 277 | 0.0 | 0.0 | 0.00 | 0.15 | 0.00 | 81 | 1021.3 |
| 20260901094304 | 75 | 277 | 0.0 | 0.0 | 0.00 | 0.15 | 0.00 | 81 | 1021.3 |
| 20260901094206 | 75 | 277 | 0.0 | 0.0 | 0.00 | 0.15 | 0.00 | 81 | 1021.1 |
| 20260901094105 | 75 | 277 | 0.0 | 0.0 | 0.00 | 0.15 | 0.00 | 81 | 1021.1 |
| 20260901094005 | 75 | 277 | 0.0 | 0.0 | 0.00 | 0.15 | 0.00 | 81 | 1021.1 |
| 20260901093905 | 75 | 277 | 0.0 | 0.0 | 0.00 | 0.15 | 0.00 | 81 | 1021.1 |
| 20260901093806 | 75 | 277 | 0.0 | 0.0 | 0.00 | 0.15 | 0.00 | 81 | 1021.1 |
| 20260901093704 | 75 | 277 | 0.0 | 0.0 | 0.00 | 0.15 | 0.00 | 81 | 1021.2 |
| 20260901093606 | 74 | 277 | 0.0 | 0.0 | 0.00 | 0.15 | 0.00 | 81 | 1021.2 |
| 20260901093503 | 74 | 277 | 0.0 | 0.0 | 0.00 | 0.15 | 0.00 | 81 | 1021.2 |
| 20260901093403 | 74 | 277 | 0.0 | 0.0 | 0.00 | 0.15 | 0.00 | 81 | 1021.3 |
| 20260901093302 | 74 | 277 | 0.0 | 0.0 | 0.00 | 0.15 | 0.00 | 81 | 1021.2 |
| 20260901093204 | 74 | 277 | 0.0 | 0.0 | 0.00 | 0.15 | 0.00 | 81 | 1021.2 |
| 20260901093102 | 74 | 277 | 0.0 | 0.0 | 0.00 | 0.15 | 0.00 | 81 | 1021.2 |
| 20260901093004 | 74 | 277 | 0.0 | 0.0 | 0.00 | 0.15 | 0.00 | 81 | 1021.3 |
| 20260901092900 | 74 | 277 | 0.0 | 0.0 | 0.00 | 0.15 | 0.00 | 81 | 1021.3 |
| 20260901092759 | 74 | 277 | 0.0 | 0.0 | 0.00 | 0.15 | 0.00 | 81 | 1021.3 |
| 20260901092658 | 74 | 277 | 0.0 | 0.0 | 0.00 | 0.15 | 0.00 | 82 | 1021.3 |
| 20260901092556 | 74 | 277 | 0.0 | 0.0 | 0.00 | 0.15 | 0.00 | 82 | 1021.3 |
| 20260901092457 | 74 | 277 | 0.0 | 0.0 | 0.00 | 0.15 | 0.00 | 82 | 1021.3 |
| 20260901092358 | 74 | 277 | 0.0 | 0.0 | 0.00 | 0.15 | 0.00 | 82 | 1021.4 |
| 20260901092256 | 74 | 277 | 0.0 | 0.0 | 0.00 | 0.15 | 0.00 | 82 | 1021.3 |
| 20260901092150 | 74 | 277 | 0.0 | 0.0 | 0.00 | 0.15 | 0.00 | 82 | 1021.4 |
| 20260901092049 | 74 | 277 | 0.0 | 0.0 | 0.00 | 0.15 | 0.00 | 82 | 1021.3 |
| 20260901091949 | 74 | 277 | 0.0 | 0.0 | 0.00 | 0.15 | 0.00 | 82 | 1021.3 |
| 20260901091849 | 74 | 277 | 0.0 | 0.0 | 0.00 | 0.15 | 0.00 | 82 | 1021.3 |
| 20260901091750 | 74 | 277 | 0.0 | 0.0 | 0.00 | 0.15 | 0.00 | 82 | 1021.3 |
| 20260901091648 | 74 | 277 | 0.0 | 0.0 | 0.00 | 0.15 | 0.00 | 82 | 1021.3 |
| 20260901091548 | 74 | 277 | 0.0 | 0.0 | 0.00 | 0.15 | 0.00 | 82 | 1021.3 |
| 20260901091448 | 74 | 277 | 0.0 | 0.0 | 0.00 | 0.15 | 0.00 | 82 | 1021.2 |
| 20260901091345 | 74 | 277 | 0.0 | 0.0 | 0.00 | 0.15 | 0.00 | 82 | 1021.3 |
| 20260901091243 | 74 | 277 | 0.0 | 0.0 | 0.00 | 0.15 | 0.00 | 82 | 1021.2 |
| 20260901091144 | 74 | 277 | 0.0 | 0.0 | 0.00 | 0.15 | 0.00 | 82 | 1021.3 |
| 20260901091040 | 74 | 277 | 0.0 | 0.0 | 0.00 | 0.15 | 0.00 | 82 | 1021.3 |
| 20260901090941 | 74 | 277 | 0.0 | 0.0 | 0.00 | 0.15 | 0.00 | 82 | 1021.3 |
| 20260901090841 | 74 | 277 | 0.0 | 0.0 | 0.00 | 0.15 | 0.00 | 82 | 1021.3 |
| 20260901090740 | 74 | 277 | 0.0 | 0.0 | 0.00 | 0.15 | 0.00 | 83 | 1021.3 |
| 20260901090640 | 74 | 277 | 0.0 | 0.0 | 0.00 | 0.15 | 0.00 | 83 | 1021.4 |
| 20260901090537 | 74 | 277 | 0.0 | 0.0 | 0.00 | 0.15 | 0.00 | 83 | 1021.3 |
| 20260901090437 | 74 | 277 | 0.0 | 0.0 | 0.00 | 0.15 | 0.00 | 83 | 1021.3 |
| 20260901090336 | 74 | 277 | 0.0 | 0.0 | 0.00 | 0.15 | 0.00 | 83 | 1021.3 |
| 20260901090235 | 74 | 277 | 0.0 | 0.0 | 0.00 | 0.15 | 0.00 | 83 | 1021.3 |
| 20260901090133 | 74 | 277 | 0.0 | 0.0 | 0.00 | 0.15 | 0.00 | 83 | 1021.3 |
| 20260901090032 | 74 | 277 | 0.0 | 0.0 | 0.00 | 0.15 | 0.00 | 83 | 1021.2 |
| 20260901085930 | 74 | 277 | 0.0 | 0.0 | 0.00 | 0.15 | 0.00 | 83 | 1021.3 |
| 20260901085830 | 74 | 277 | 0.0 | 0.0 | 0.00 | 0.15 | 0.00 | 83 | 1021.3 |
| 20260901085729 | 74 | 277 | 0.0 | 0.0 | 0.00 | 0.15 | 0.00 | 83 | 1021.2 |
| 20260901085627 | 74 | 277 | 0.0 | 0.0 | 0.00 | 0.15 | 0.00 | 83 | 1021.3 |
| 20260901085525 | 74 | 277 | 0.0 | 0.0 | 0.00 | 0.15 | 0.00 | 83 | 1021.3 |
| 20260901085425 | 74 | 277 | 0.0 | 0.0 | 0.00 | 0.15 | 0.00 | 83 | 1021.3 |
| 20260901085324 | 74 | 277 | 0.0 | 0.0 | 0.00 | 0.15 | 0.00 | 83 | 1021.3 |
| 20260901085224 | 74 | 277 | 0.0 | 0.0 | 0.00 | 0.15 | 0.00 | 83 | 1021.4 |
| 20260901085125 | 74 | 277 | 0.0 | 0.0 | 0.00 | 0.15 | 0.00 | 83 | 1021.3 |
| 20260901085026 | 74 | 277 | 0.0 | 0.0 | 0.00 | 0.15 | 0.00 | 83 | 1021.3 |
| 20260901084922 | 74 | 277 | 0.0 | 0.0 | 0.00 | 0.15 | 0.00 | 83 | 1021.3 |
| 20260901084818 | 74 | 277 | 0.0 | 0.0 | 0.00 | 0.15 | 0.00 | 83 | 1021.3 |
| 20260901084718 | 74 | 277 | 0.0 | 0.0 | 0.00 | 0.15 | 0.00 | 83 | 1021.3 |
| 20260901084617 | 74 | 277 | 0.0 | 0.0 | 0.00 | 0.15 | 0.00 | 83 | 1021.3 |
| 20260901084517 | 74 | 277 | 0.0 | 0.0 | 0.00 | 0.15 | 0.00 | 83 | 1021.3 |
| 20260901084416 | 74 | 277 | 0.0 | 0.0 | 0.00 | 0.15 | 0.00 | 83 | 1021.3 |
| 20260901084318 | 74 | 277 | 0.0 | 0.0 | 0.00 | 0.15 | 0.00 | 83 | 1021.3 |
| 20260901084216 | 74 | 277 | 0.0 | 0.0 | 0.00 | 0.15 | 0.00 | 83 | 1021.3 |
| 20260901084118 | 74 | 277 | 0.0 | 0.0 | 0.00 | 0.15 | 0.00 | 83 | 1021.3 |
| 20260901084016 | 74 | 277 | 0.0 | 0.0 | 0.00 | 0.15 | 0.00 | 83 | 1021.3 |
| 20260901083918 | 74 | 277 | 0.0 | 0.0 | 0.00 | 0.15 | 0.00 | 83 | 1021.4 |
| 20260901083818 | 74 | 277 | 0.0 | 0.0 | 0.00 | 0.15 | 0.00 | 83 | 1021.4 |
| 20260901083717 | 74 | 277 | 0.0 | 0.0 | 0.00 | 0.15 | 0.00 | 83 | 1021.2 |
| 20260901083618 | 74 | 277 | 0.0 | 0.0 | 0.00 | 0.15 | 0.00 | 83 | 1021.3 |
| 20260901083517 | 74 | 277 | 0.0 | 0.0 | 0.00 | 0.15 | 0.00 | 83 | 1021.3 |
| 20260901083417 | 74 | 277 | 0.0 | 0.0 | 0.00 | 0.15 | 0.00 | 83 | 1021.4 |
| 20260901083316 | 74 | 277 | 0.0 | 0.0 | 0.00 | 0.15 | 0.00 | 83 | 1021.3 |
| 20260901083217 | 74 | 277 | 0.0 | 0.0 | 0.00 | 0.15 | 0.00 | 83 | 1021.3 |
| 20260901083114 | 74 | 277 | 0.0 | 0.0 | 0.00 | 0.15 | 0.00 | 83 | 1021.4 |
| 20260901083014 | 74 | 277 | 0.0 | 0.0 | 0.00 | 0.15 | 0.00 | 83 | 1021.3 |
| 20260901082915 | 74 | 277 | 0.0 | 0.0 | 0.00 | 0.15 | 0.00 | 83 | 1021.3 |
| 20260901082814 | 74 | 277 | 0.0 | 0.0 | 0.00 | 0.15 | 0.00 | 83 | 1021.3 |
| 20260901082715 | 74 | 277 | 0.0 | 0.0 | 0.00 | 0.15 | 0.00 | 83 | 1021.3 |
| 20260901082614 | 74 | 277 | 0.0 | 0.0 | 0.00 | 0.15 | 0.00 | 83 | 1021.3 |
| 20260901082515 | 74 | 277 | 0.0 | 0.0 | 0.00 | 0.15 | 0.00 | 83 | 1021.4 |
| 20260901082415 | 74 | 277 | 0.0 | 0.0 | 0.00 | 0.15 | 0.00 | 83 | 1021.4 |
| 20260901082315 | 74 | 277 | 0.0 | 0.0 | 0.00 | 0.15 | 0.00 | 83 | 1021.3 |
| 20260901082216 | 75 | 277 | 0.0 | 0.0 | 0.00 | 0.15 | 0.00 | 83 | 1021.4 |
| 20260901082114 | 75 | 277 | 0.0 | 0.0 | 0.00 | 0.15 | 0.00 | 83 | 1021.4 |
| 20260901082015 | 75 | 277 | 0.0 | 0.0 | 0.00 | 0.15 | 0.00 | 83 | 1021.3 |
| 20260901081914 | 75 | 277 | 0.0 | 0.0 | 0.00 | 0.15 | 0.00 | 83 | 1021.4 |
| 20260901081815 | 75 | 277 | 0.0 | 0.0 | 0.00 | 0.15 | 0.00 | 83 | 1021.4 |
| 20260901081714 | 75 | 277 | 0.0 | 0.0 | 0.00 | 0.15 | 0.00 | 83 | 1021.3 |
| 20260901081615 | 75 | 277 | 0.0 | 0.0 | 0.00 | 0.15 | 0.00 | 83 | 1021.4 |
| 20260901081514 | 75 | 277 | 0.0 | 0.0 | 0.00 | 0.15 | 0.00 | 83 | 1021.5 |
| 20260901081415 | 75 | 277 | 0.0 | 0.0 | 0.00 | 0.15 | 0.00 | 83 | 1021.4 |
| 20260901081314 | 75 | 277 | 0.0 | 0.0 | 0.00 | 0.15 | 0.00 | 83 | 1021.4 |
| 20260901081216 | 75 | 277 | 0.0 | 0.0 | 0.00 | 0.15 | 0.00 | 83 | 1021.4 |
| 20260901081116 | 75 | 277 | 0.0 | 0.0 | 0.00 | 0.15 | 0.00 | 82 | 1021.4 |
| 20260901081015 | 75 | 277 | 0.0 | 0.0 | 0.00 | 0.15 | 0.00 | 82 | 1021.4 |
| 20260901080914 | 75 | 277 | 0.0 | 0.0 | 0.00 | 0.15 | 0.00 | 82 | 1021.3 |
| 20260901080816 | 75 | 277 | 0.0 | 0.0 | 0.00 | 0.15 | 0.00 | 82 | 1021.4 |
| 20260901080714 | 75 | 277 | 0.0 | 0.0 | 0.00 | 0.15 | 0.00 | 82 | 1021.4 |
| 20260901080614 | 75 | 277 | 0.0 | 0.0 | 0.00 | 0.15 | 0.00 | 82 | 1021.3 |
| 20260901080515 | 75 | 277 | 0.0 | 0.0 | 0.00 | 0.15 | 0.00 | 82 | 1021.4 |
| 20260901080410 | 75 | 277 | 0.0 | 0.0 | 0.00 | 0.15 | 0.00 | 82 | 1021.4 |
| 20260901080311 | 75 | 277 | 0.0 | 0.0 | 0.00 | 0.15 | 0.00 | 82 | 1021.5 |
| 20260901080211 | 75 | 277 | 0.0 | 0.0 | 0.00 | 0.15 | 0.00 | 82 | 1021.4 |
| 20260901080111 | 75 | 277 | 0.0 | 0.0 | 0.00 | 0.15 | 0.00 | 82 | 1021.4 |
| 20260901080012 | 75 | 277 | 0.0 | 0.0 | 0.00 | 0.15 | 0.00 | 82 | 1021.4 |
| 20260901075911 | 75 | 277 | 0.0 | 0.0 | 0.00 | 0.15 | 0.00 | 82 | 1021.4 |
| 20260901075812 | 75 | 277 | 0.0 | 0.0 | 0.00 | 0.15 | 0.00 | 82 | 1021.4 |
| 20260901075710 | 75 | 277 | 0.0 | 0.0 | 0.00 | 0.15 | 0.00 | 82 | 1021.4 |
| 20260901075611 | 75 | 277 | 0.0 | 0.0 | 0.00 | 0.15 | 0.00 | 82 | 1021.4 |
| 20260901075511 | 75 | 277 | 0.0 | 0.0 | 0.00 | 0.15 | 0.00 | 82 | 1021.5 |
| 20260901075412 | 75 | 277 | 0.0 | 0.0 | 0.00 | 0.15 | 0.00 | 82 | 1021.4 |
| 20260901075310 | 75 | 277 | 0.0 | 0.0 | 0.00 | 0.15 | 0.00 | 82 | 1021.5 |
| 20260901075211 | 75 | 277 | 0.0 | 0.0 | 0.00 | 0.15 | 0.00 | 82 | 1021.4 |
| 20260901075110 | 76 | 277 | 0.0 | 0.0 | 0.00 | 0.15 | 0.00 | 82 | 1021.5 |
| 20260901075012 | 76 | 277 | 0.0 | 0.0 | 0.00 | 0.15 | 0.00 | 82 | 1021.4 |
| 20260901074911 | 76 | 277 | 0.0 | 0.0 | 0.00 | 0.15 | 0.00 | 82 | 1021.6 |
| 20260901074811 | 76 | 277 | 0.0 | 0.0 | 0.00 | 0.15 | 0.00 | 82 | 1021.5 |
| 20260901074711 | 76 | 277 | 0.0 | 0.0 | 0.00 | 0.15 | 0.00 | 82 | 1021.5 |
| 20260901074611 | 76 | 277 | 0.0 | 0.0 | 0.00 | 0.15 | 0.00 | 82 | 1021.6 |
| 20260901074511 | 76 | 277 | 0.0 | 0.0 | 0.00 | 0.15 | 0.00 | 82 | 1021.5 |
| 20260901074412 | 76 | 277 | 0.0 | 0.0 | 0.00 | 0.15 | 0.00 | 82 | 1021.5 |
| 20260901074311 | 76 | 277 | 0.0 | 0.0 | 0.00 | 0.15 | 0.00 | 82 | 1021.5 |
| 20260901074211 | 76 | 277 | 0.0 | 0.0 | 0.00 | 0.15 | 0.00 | 82 | 1021.6 |
| 20260901074110 | 76 | 277 | 0.0 | 0.0 | 0.00 | 0.15 | 0.00 | 82 | 1021.5 |
| 20260901074010 | 76 | 277 | 0.0 | 0.0 | 0.00 | 0.15 | 0.00 | 82 | 1021.5 |
| 20260901073912 | 76 | 277 | 0.0 | 0.0 | 0.00 | 0.15 | 0.00 | 82 | 1021.5 |
| 20260901073811 | 76 | 277 | 0.0 | 0.0 | 0.00 | 0.15 | 0.00 | 82 | 1021.5 |
| 20260901073712 | 76 | 277 | 0.0 | 0.0 | 0.00 | 0.15 | 0.00 | 82 | 1021.5 |
| 20260901073611 | 76 | 277 | 0.0 | 0.0 | 0.00 | 0.15 | 0.00 | 82 | 1021.5 |
| 20260901073511 | 76 | 277 | 0.0 | 0.0 | 0.00 | 0.15 | 0.00 | 82 | 1021.5 |
| 20260901073410 | 76 | 277 | 0.0 | 0.0 | 0.00 | 0.15 | 0.00 | 82 | 1021.6 |
| 20260901073312 | 76 | 277 | 0.0 | 0.0 | 0.00 | 0.15 | 0.00 | 82 | 1021.5 |
| 20260901073212 | 75 | 277 | 0.0 | 0.0 | 0.00 | 0.15 | 0.00 | 82 | 1021.5 |
| 20260901073106 | 75 | 277 | 0.0 | 0.0 | 0.00 | 0.15 | 0.00 | 82 | 1021.5 |
| 20260901073007 | 75 | 277 | 0.0 | 0.0 | 0.00 | 0.15 | 0.00 | 82 | 1021.5 |
| 20260901072906 | 75 | 277 | 0.0 | 0.0 | 0.00 | 0.15 | 0.00 | 82 | 1021.5 |
| 20260901072806 | 75 | 277 | 0.0 | 0.0 | 0.00 | 0.15 | 0.00 | 82 | 1021.5 |
| 20260901072706 | 75 | 277 | 0.0 | 0.0 | 0.00 | 0.15 | 0.00 | 82 | 1021.5 |
| 20260901072606 | 75 | 277 | 0.0 | 0.0 | 0.00 | 0.15 | 0.00 | 82 | 1021.6 |
| 20260901072508 | 75 | 277 | 0.0 | 0.0 | 0.00 | 0.15 | 0.00 | 82 | 1021.5 |
| 20260901072407 | 75 | 277 | 0.0 | 0.0 | 0.00 | 0.15 | 0.00 | 82 | 1021.5 |
| 20260901072309 | 75 | 277 | 0.0 | 0.0 | 0.00 | 0.15 | 0.00 | 83 | 1021.5 |
| 20260901072208 | 75 | 277 | 0.0 | 0.0 | 0.00 | 0.15 | 0.00 | 82 | 1021.6 |
| 20260901072107 | 75 | 277 | 0.0 | 0.0 | 0.00 | 0.15 | 0.00 | 82 | 1021.6 |
| 20260901072007 | 75 | 277 | 0.0 | 0.0 | 0.00 | 0.15 | 0.00 | 82 | 1021.6 |
| 20260901071907 | 75 | 277 | 0.0 | 0.0 | 0.00 | 0.15 | 0.00 | 83 | 1021.6 |
| 20260901071807 | 75 | 278 | 0.0 | 0.0 | 0.00 | 0.15 | 0.00 | 82 | 1021.6 |
| 20260901071707 | 76 | 278 | 0.0 | 0.0 | 0.00 | 0.15 | 0.00 | 82 | 1021.5 |
| 20260901071606 | 75 | 279 | 0.0 | 0.0 | 0.00 | 0.15 | 0.00 | 82 | 1021.6 |
| 20260901071506 | 76 | 279 | 0.0 | 0.0 | 0.00 | 0.15 | 0.00 | 82 | 1021.5 |
| 20260901071408 | 76 | 279 | 0.0 | 0.0 | 0.00 | 0.15 | 0.00 | 82 | 1021.6 |
| 20260901071306 | 76 | 279 | 0.0 | 0.0 | 0.00 | 0.15 | 0.00 | 82 | 1021.6 |
| 20260901071206 | 76 | 279 | 0.0 | 0.0 | 0.00 | 0.15 | 0.00 | 82 | 1021.6 |
| 20260901071106 | 76 | 279 | 0.0 | 0.0 | 0.00 | 0.15 | 0.00 | 82 | 1021.5 |
| 20260901071008 | 76 | 279 | 0.0 | 0.0 | 0.00 | 0.15 | 0.00 | 82 | 1021.6 |
| 20260901070907 | 76 | 279 | 0.0 | 0.0 | 0.00 | 0.15 | 0.00 | 82 | 1021.6 |
| 20260901070806 | 76 | 279 | 0.0 | 0.0 | 0.00 | 0.15 | 0.00 | 82 | 1021.6 |
| 20260901070707 | 76 | 279 | 0.0 | 0.0 | 0.00 | 0.15 | 0.00 | 82 | 1021.7 |
| 20260901070607 | 76 | 279 | 0.0 | 0.0 | 0.00 | 0.15 | 0.00 | 82 | 1021.6 |
| 20260901070506 | 76 | 279 | 0.0 | 0.0 | 0.00 | 0.15 | 0.00 | 81 | 1021.6 |
| 20260901070407 | 76 | 279 | 0.0 | 0.0 | 0.00 | 0.15 | 0.00 | 81 | 1021.6 |
| 20260901070308 | 76 | 279 | 0.0 | 0.0 | 0.00 | 0.15 | 0.00 | 81 | 1021.6 |
| 20260901070207 | 76 | 282 | 0.0 | 0.0 | 0.00 | 0.15 | 0.00 | 81 | 1021.6 |
| 20260901070107 | 76 | 282 | 0.0 | 0.0 | 0.00 | 0.15 | 0.00 | 81 | 1021.7 |
| 20260901070006 | 76 | 282 | 0.0 | 0.0 | 0.00 | 0.15 | 0.00 | 81 | 1021.7 |
| 20260901065907 | 76 | 282 | 0.0 | 0.0 | 0.00 | 0.15 | 0.00 | 81 | 1021.7 |
| 20260901065802 | 76 | 282 | 0.0 | 0.0 | 0.00 | 0.15 | 0.00 | 81 | 1021.6 |
| 20260901065702 | 76 | 282 | 0.0 | 0.0 | 0.00 | 0.15 | 0.00 | 81 | 1021.7 |
| 20260901065602 | 76 | 282 | 0.0 | 0.0 | 0.00 | 0.15 | 0.00 | 81 | 1021.7 |
| 20260901065504 | 76 | 282 | 0.0 | 0.0 | 0.00 | 0.15 | 0.00 | 81 | 1021.7 |
| 20260901065402 | 76 | 282 | 0.0 | 0.0 | 0.00 | 0.15 | 0.00 | 81 | 1021.7 |
| 20260901065305 | 77 | 282 | 0.0 | 0.0 | 0.00 | 0.15 | 0.00 | 80 | 1021.6 |
| 20260901065204 | 76 | 282 | 0.0 | 0.0 | 0.00 | 0.15 | 0.00 | 80 | 1021.7 |
| 20260901065102 | 77 | 284 | 0.0 | 0.0 | 0.00 | 0.15 | 0.00 | 80 | 1021.9 |
| 20260901065002 | 77 | 284 | 0.0 | 0.0 | 0.00 | 0.15 | 0.00 | 80 | 1021.9 |
| 20260901064903 | 77 | 284 | 0.0 | 0.0 | 0.00 | 0.15 | 0.00 | 80 | 1021.9 |
| 20260901064802 | 77 | 284 | 0.0 | 0.0 | 0.00 | 0.15 | 0.00 | 80 | 1021.7 |
| 20260901064703 | 77 | 284 | 0.0 | 0.0 | 0.00 | 0.15 | 0.00 | 79 | 1021.9 |
| 20260901064604 | 77 | 284 | 0.0 | 0.0 | 0.00 | 0.15 | 0.00 | 79 | 1021.9 |
| 20260901064502 | 77 | 284 | 0.0 | 0.0 | 0.00 | 0.15 | 0.00 | 79 | 1021.9 |
| 20260901064402 | 77 | 284 | 0.0 | 0.0 | 0.00 | 0.15 | 0.00 | 79 | 1021.9 |
| 20260901064303 | 77 | 284 | 0.0 | 0.0 | 0.00 | 0.15 | 0.00 | 79 | 1021.9 |
| 20260901064202 | 77 | 284 | 0.0 | 0.0 | 0.00 | 0.15 | 0.00 | 79 | 1021.9 |
| 20260901064104 | 77 | 284 | 0.0 | 0.0 | 0.00 | 0.15 | 0.00 | 80 | 1022.0 |
| 20260901064002 | 76 | 284 | 0.0 | 0.0 | 0.00 | 0.15 | 0.00 | 80 | 1022.0 |
| 20260901063903 | 76 | 284 | 0.0 | 0.0 | 0.00 | 0.15 | 0.00 | 80 | 1021.9 |
| 20260901063802 | 77 | 284 | 0.0 | 0.0 | 0.00 | 0.15 | 0.00 | 80 | 1022.1 |
| 20260901063702 | 76 | 284 | 0.0 | 0.0 | 0.00 | 0.15 | 0.00 | 80 | 1022.0 |
| 20260901063603 | 76 | 284 | 0.0 | 0.0 | 0.00 | 0.15 | 0.00 | 80 | 1022.0 |
| 20260901063502 | 76 | 284 | 0.0 | 0.0 | 0.00 | 0.15 | 0.00 | 80 | 1022.0 |
| 20260901063404 | 76 | 284 | 0.0 | 0.0 | 0.00 | 0.15 | 0.00 | 80 | 1022.0 |
| 20260901063302 | 76 | 284 | 0.0 | 0.0 | 0.00 | 0.15 | 0.00 | 80 | 1022.0 |
| 20260901063203 | 76 | 284 | 0.0 | 0.0 | 0.00 | 0.15 | 0.00 | 80 | 1022.0 |
| 20260901063102 | 76 | 284 | 0.0 | 0.0 | 0.00 | 0.15 | 0.00 | 80 | 1022.1 |
| 20260901063004 | 76 | 284 | 0.0 | 0.0 | 0.00 | 0.15 | 0.00 | 80 | 1022.1 |
| 20260901062902 | 76 | 284 | 0.0 | 0.0 | 0.00 | 0.15 | 0.00 | 80 | 1022.1 |
| 20260901062803 | 76 | 284 | 0.0 | 0.0 | 0.00 | 0.15 | 0.00 | 80 | 1022.0 |
| 20260901062702 | 76 | 284 | 0.0 | 0.0 | 0.00 | 0.15 | 0.00 | 80 | 1022.1 |
| 20260901062604 | 76 | 284 | 0.0 | 0.0 | 0.00 | 0.15 | 0.00 | 80 | 1022.1 |
| 20260901062504 | 76 | 284 | 0.0 | 0.0 | 0.00 | 0.15 | 0.00 | 80 | 1022.0 |
| 20260901062401 | 76 | 284 | 0.0 | 0.0 | 0.00 | 0.15 | 0.00 | 80 | 1022.1 |
| 20260901062300 | 76 | 284 | 0.0 | 0.0 | 0.00 | 0.15 | 0.00 | 80 | 1022.0 |
| 20260901062159 | 76 | 284 | 0.0 | 0.0 | 0.00 | 0.15 | 0.00 | 80 | 1022.2 |
| 20260901062056 | 76 | 284 | 0.0 | 0.0 | 0.00 | 0.15 | 0.00 | 80 | 1022.1 |
| 20260901061956 | 76 | 284 | 0.0 | 0.0 | 0.00 | 0.15 | 0.00 | 80 | 1022.1 |
| 20260901061856 | 76 | 284 | 0.0 | 0.0 | 0.00 | 0.15 | 0.00 | 80 | 1022.1 |
| 20260901061751 | 76 | 284 | 0.0 | 0.0 | 0.00 | 0.15 | 0.00 | 80 | 1022.1 |
| 20260901061648 | 76 | 284 | 0.0 | 0.0 | 0.00 | 0.15 | 0.00 | 80 | 1022.1 |
| 20260901061547 | 76 | 284 | 0.0 | 0.0 | 0.00 | 0.15 | 0.00 | 80 | 1022.1 |
| 20260901061447 | 76 | 284 | 0.0 | 0.0 | 0.00 | 0.15 | 0.00 | 80 | 1022.1 |
| 20260901061345 | 76 | 284 | 0.0 | 0.0 | 0.00 | 0.15 | 0.00 | 80 | 1022.2 |
| 20260901061245 | 76 | 284 | 0.0 | 0.0 | 0.00 | 0.15 | 0.00 | 80 | 1022.2 |
| 20260901061143 | 76 | 284 | 0.0 | 0.0 | 0.00 | 0.15 | 0.00 | 80 | 1022.1 |
| 20260901061040 | 76 | 284 | 0.0 | 0.0 | 0.00 | 0.15 | 0.00 | 80 | 1022.1 |
| 20260901060940 | 76 | 284 | 0.0 | 0.0 | 0.00 | 0.15 | 0.00 | 80 | 1022.1 |
| 20260901060839 | 76 | 284 | 0.0 | 0.0 | 0.00 | 0.15 | 0.00 | 80 | 1022.2 |
| 20260901060739 | 76 | 284 | 0.0 | 0.0 | 0.00 | 0.15 | 0.00 | 80 | 1022.1 |
| 20260901060637 | 76 | 284 | 0.0 | 0.0 | 0.00 | 0.15 | 0.00 | 80 | 1022.2 |
| 20260901060535 | 76 | 284 | 0.0 | 0.0 | 0.00 | 0.15 | 0.00 | 80 | 1022.3 |
| 20260901060428 | 76 | 284 | 0.0 | 0.0 | 0.00 | 0.15 | 0.00 | 80 | 1022.2 |
| 20260901060329 | 76 | 284 | 0.0 | 0.0 | 0.00 | 0.15 | 0.00 | 80 | 1022.2 |
| 20260901060230 | 76 | 284 | 0.0 | 0.0 | 0.00 | 0.15 | 0.00 | 80 | 1022.2 |
| 20260901060127 | 76 | 284 | 0.0 | 0.0 | 0.00 | 0.15 | 0.00 | 80 | 1022.3 |
| 20260901060024 | 76 | 284 | 0.0 | 0.0 | 0.00 | 0.15 | 0.00 | 80 | 1022.2 |
| 20260901055925 | 76 | 282 | 0.0 | 0.0 | 0.00 | 0.15 | 0.00 | 80 | 1022.3 |
| 20260901055823 | 76 | 281 | 0.0 | 0.0 | 0.00 | 0.15 | 0.00 | 80 | 1022.2 |
| 20260901055724 | 76 | 280 | 0.0 | 0.0 | 0.00 | 0.15 | 0.00 | 80 | 1022.2 |
| 20260901055621 | 76 | 280 | 0.0 | 0.0 | 0.00 | 0.15 | 0.00 | 80 | 1022.2 |
| 20260901055518 | 76 | 279 | 0.0 | 0.0 | 0.00 | 0.15 | 0.00 | 80 | 1022.2 |
| 20260901055414 | 76 | 279 | 0.0 | 0.0 | 0.00 | 0.15 | 0.00 | 80 | 1022.2 |
| 20260901055313 | 76 | 278 | 0.0 | 0.0 | 0.00 | 0.15 | 0.00 | 80 | 1022.3 |
| 20260901055213 | 76 | 278 | 0.0 | 0.0 | 0.00 | 0.15 | 0.00 | 80 | 1022.2 |
| 20260901055112 | 76 | 278 | 0.0 | 0.0 | 0.00 | 0.15 | 0.00 | 80 | 1022.3 |
| 20260901055012 | 76 | 277 | 0.0 | 0.0 | 0.00 | 0.15 | 0.00 | 80 | 1022.2 |
| 20260901054912 | 76 | 277 | 0.0 | 0.0 | 0.00 | 0.15 | 0.00 | 80 | 1022.2 |
| 20260901054812 | 76 | 276 | 0.0 | 0.0 | 0.00 | 0.15 | 0.00 | 80 | 1022.2 |
| 20260901054711 | 76 | 276 | 0.0 | 0.0 | 0.00 | 0.15 | 0.00 | 80 | 1022.2 |
| 20260901054608 | 76 | 276 | 0.0 | 0.0 | 0.00 | 0.15 | 0.00 | 80 | 1022.3 |
| 20260901054509 | 76 | 275 | 0.0 | 0.0 | 0.00 | 0.15 | 0.00 | 80 | 1022.2 |
| 20260901054408 | 76 | 275 | 0.0 | 0.0 | 0.00 | 0.15 | 0.00 | 80 | 1022.2 |
| 20260901054304 | 76 | 275 | 0.0 | 0.0 | 0.00 | 0.15 | 0.00 | 80 | 1022.2 |
| 20260901054205 | 76 | 275 | 0.0 | 0.0 | 0.00 | 0.15 | 0.00 | 80 | 1022.2 |
| 20260901054102 | 76 | 275 | 0.0 | 0.0 | 0.00 | 0.15 | 0.00 | 81 | 1022.2 |
| 20260901054003 | 76 | 275 | 0.0 | 0.0 | 0.00 | 0.15 | 0.00 | 81 | 1022.2 |
| 20260901053902 | 76 | 275 | 0.0 | 0.0 | 0.00 | 0.15 | 0.00 | 81 | 1022.3 |
| 20260901053803 | 76 | 275 | 0.0 | 0.0 | 0.00 | 0.15 | 0.00 | 81 | 1022.2 |
| 20260901053702 | 76 | 275 | 0.0 | 0.0 | 0.00 | 0.15 | 0.00 | 81 | 1022.2 |
| 20260901053601 | 76 | 275 | 0.0 | 0.0 | 0.00 | 0.15 | 0.00 | 81 | 1022.3 |
| 20260901053458 | 76 | 275 | 0.0 | 0.0 | 0.00 | 0.15 | 0.00 | 81 | 1022.2 |
| 20260901053359 | 76 | 275 | 0.0 | 0.0 | 0.00 | 0.15 | 0.00 | 81 | 1022.2 |
| 20260901053257 | 76 | 275 | 0.0 | 0.0 | 0.00 | 0.15 | 0.00 | 81 | 1022.3 |
| 20260901053156 | 76 | 275 | 0.0 | 0.0 | 0.00 | 0.15 | 0.00 | 81 | 1022.2 |
| 20260901053055 | 76 | 275 | 0.0 | 0.0 | 0.00 | 0.15 | 0.00 | 81 | 1022.3 |
| 20260901052956 | 76 | 275 | 0.0 | 0.0 | 0.00 | 0.15 | 0.00 | 81 | 1022.3 |
| 20260901052854 | 76 | 275 | 0.0 | 0.0 | 0.00 | 0.15 | 0.00 | 81 | 1022.2 |
| 20260901052750 | 76 | 275 | 0.0 | 0.0 | 0.00 | 0.15 | 0.00 | 81 | 1022.3 |
| 20260901052651 | 76 | 275 | 0.0 | 0.0 | 0.00 | 0.15 | 0.00 | 81 | 1022.3 |
| 20260901052547 | 76 | 275 | 0.0 | 0.0 | 0.00 | 0.15 | 0.00 | 81 | 1022.3 |
| 20260901052449 | 76 | 275 | 0.0 | 0.0 | 0.00 | 0.15 | 0.00 | 81 | 1022.4 |
| 20260901052347 | 76 | 275 | 0.0 | 0.0 | 0.00 | 0.15 | 0.00 | 81 | 1022.3 |
| 20260901052246 | 76 | 275 | 0.0 | 0.0 | 0.00 | 0.15 | 0.00 | 81 | 1022.3 |
| 20260901052146 | 76 | 275 | 0.0 | 0.0 | 0.00 | 0.15 | 0.00 | 81 | 1022.3 |
| 20260901052043 | 76 | 276 | 0.0 | 0.0 | 0.00 | 0.15 | 0.00 | 82 | 1022.4 |
| 20260901051942 | 76 | 276 | 0.0 | 0.0 | 0.00 | 0.15 | 0.00 | 81 | 1022.3 |
| 20260901051843 | 76 | 277 | 0.0 | 0.0 | 0.00 | 0.15 | 0.00 | 81 | 1022.3 |
| 20260901051743 | 76 | 277 | 0.0 | 0.0 | 0.00 | 0.15 | 0.00 | 82 | 1022.3 |
| 20260901051642 | 76 | 279 | 0.0 | 0.0 | 0.00 | 0.15 | 0.00 | 82 | 1022.3 |
| 20260901051541 | 76 | 279 | 0.0 | 0.0 | 0.00 | 0.15 | 0.00 | 82 | 1022.4 |
| 20260901051442 | 76 | 283 | 0.0 | 0.0 | 0.00 | 0.15 | 0.00 | 81 | 1022.4 |
| 20260901051339 | 76 | 285 | 0.0 | 0.0 | 0.00 | 0.15 | 0.00 | 81 | 1022.4 |
| 20260901051237 | 76 | 293 | 0.0 | 0.0 | 0.00 | 0.15 | 0.00 | 81 | 1022.4 |
| 20260901051137 | 76 | 294 | 0.0 | 0.0 | 0.00 | 0.15 | 0.00 | 81 | 1022.4 |
| 20260901051034 | 76 | 296 | 0.0 | 0.0 | 0.00 | 0.15 | 0.00 | 81 | 1022.4 |
| 20260901050935 | 76 | 296 | 0.0 | 0.0 | 0.00 | 0.15 | 0.00 | 81 | 1022.4 |
| 20260901050832 | 76 | 296 | 0.0 | 0.0 | 0.00 | 0.15 | 0.00 | 81 | 1022.4 |
| 20260901050732 | 77 | 296 | 0.0 | 0.0 | 0.00 | 0.15 | 0.00 | 81 | 1022.4 |
| 20260901050632 | 76 | 296 | 0.0 | 0.0 | 0.00 | 0.15 | 0.00 | 81 | 1022.5 |
| 20260901050528 | 77 | 296 | 0.0 | 0.0 | 0.00 | 0.15 | 0.00 | 81 | 1022.5 |
| 20260901050430 | 77 | 296 | 0.0 | 0.0 | 0.00 | 0.15 | 0.00 | 81 | 1022.4 |
| 20260901050326 | 77 | 297 | 0.0 | 0.0 | 0.00 | 0.15 | 0.00 | 81 | 1022.4 |
| 20260901050230 | 77 | 297 | 0.0 | 0.0 | 0.00 | 0.15 | 0.00 | 81 | 1022.4 |
| 20260901050124 | 77 | 298 | 0.0 | 0.0 | 0.00 | 0.15 | 0.00 | 81 | 1022.4 |
| 20260901050022 | 77 | 298 | 0.0 | 0.0 | 0.00 | 0.15 | 0.00 | 81 | 1022.3 |
| 20260901045920 | 77 | 298 | 0.0 | 0.0 | 0.00 | 0.15 | 0.00 | 80 | 1022.4 |
| 20260901045820 | 77 | 298 | 0.0 | 0.0 | 0.00 | 0.15 | 0.00 | 80 | 1022.4 |
| 20260901045721 | 77 | 299 | 0.0 | 0.0 | 0.00 | 0.15 | 0.00 | 80 | 1022.4 |
| 20260901045619 | 77 | 299 | 0.0 | 0.0 | 0.00 | 0.15 | 0.00 | 80 | 1022.3 |
| 20260901045516 | 77 | 298 | 0.0 | 0.0 | 0.00 | 0.15 | 0.00 | 80 | 1022.3 |
| 20260901045413 | 77 | 298 | 0.0 | 0.0 | 0.00 | 0.15 | 0.00 | 80 | 1022.3 |
| 20260901045311 | 77 | 298 | 0.0 | 0.0 | 0.00 | 0.15 | 0.00 | 80 | 1022.3 |
| 20260901045209 | 77 | 298 | 0.0 | 0.0 | 0.00 | 0.15 | 0.00 | 80 | 1022.4 |
| 20260901045103 | 77 | 298 | 0.0 | 0.0 | 0.00 | 0.15 | 0.00 | 80 | 1022.4 |
| 20260901045002 | 77 | 298 | 0.0 | 0.0 | 0.00 | 0.15 | 0.00 | 80 | 1022.3 |
| 20260901044903 | 77 | 298 | 0.0 | 0.0 | 0.00 | 0.15 | 0.00 | 80 | 1022.2 |
| 20260901044801 | 77 | 298 | 0.0 | 0.0 | 0.00 | 0.15 | 0.00 | 80 | 1022.3 |
| 20260901044659 | 77 | 298 | 0.0 | 0.0 | 0.00 | 0.15 | 0.00 | 80 | 1022.2 |
| 20260901044558 | 77 | 298 | 0.0 | 0.0 | 0.00 | 0.15 | 0.00 | 80 | 1022.3 |
| 20260901044457 | 77 | 298 | 0.0 | 0.0 | 0.00 | 0.15 | 0.00 | 80 | 1022.3 |
| 20260901044358 | 77 | 298 | 0.0 | 0.0 | 0.00 | 0.15 | 0.00 | 80 | 1022.2 |
| 20260901044254 | 77 | 298 | 0.0 | 0.0 | 0.00 | 0.15 | 0.00 | 80 | 1022.2 |
| 20260901044153 | 77 | 298 | 0.0 | 0.0 | 0.00 | 0.15 | 0.00 | 79 | 1022.1 |
| 20260901044051 | 77 | 298 | 0.0 | 0.0 | 0.00 | 0.15 | 0.00 | 79 | 1022.1 |
| 20260901043952 | 77 | 298 | 0.0 | 0.0 | 0.00 | 0.15 | 0.00 | 79 | 1022.2 |
| 20260901043851 | 77 | 298 | 0.0 | 0.0 | 0.00 | 0.15 | 0.00 | 79 | 1022.1 |
| 20260901043748 | 77 | 298 | 0.0 | 0.0 | 0.00 | 0.15 | 0.00 | 79 | 1022.2 |
| 20260901043646 | 77 | 298 | 0.0 | 0.0 | 0.00 | 0.15 | 0.00 | 79 | 1022.0 |
| 20260901043542 | 77 | 298 | 0.0 | 0.0 | 0.00 | 0.15 | 0.00 | 79 | 1022.1 |
| 20260901043440 | 77 | 298 | 0.0 | 0.0 | 0.00 | 0.15 | 0.00 | 79 | 1022.0 |
| 20260901043340 | 77 | 298 | 0.0 | 0.0 | 0.00 | 0.15 | 0.00 | 80 | 1022.1 |
| 20260901043239 | 77 | 298 | 0.0 | 0.0 | 0.00 | 0.15 | 0.00 | 80 | 1022.0 |
| 20260901043137 | 77 | 298 | 0.0 | 0.0 | 0.00 | 0.15 | 0.00 | 80 | 1022.0 |
| 20260901043032 | 77 | 298 | 0.0 | 0.0 | 0.00 | 0.15 | 0.00 | 80 | 1022.1 |
| 20260901042931 | 77 | 298 | 0.0 | 0.0 | 0.00 | 0.15 | 0.00 | 80 | 1022.1 |
| 20260901042830 | 77 | 298 | 0.0 | 0.0 | 0.00 | 0.15 | 0.00 | 80 | 1022.1 |
| 20260901042730 | 77 | 298 | 0.0 | 0.0 | 0.00 | 0.15 | 0.00 | 80 | 1022.0 |
| 20260901042631 | 77 | 298 | 0.0 | 0.0 | 0.00 | 0.15 | 0.00 | 80 | 1022.1 |
| 20260901042530 | 77 | 298 | 0.0 | 0.0 | 0.00 | 0.15 | 0.00 | 80 | 1022.1 |
| 20260901042428 | 77 | 298 | 0.0 | 0.0 | 0.00 | 0.15 | 0.00 | 80 | 1022.1 |
| 20260901042329 | 77 | 298 | 0.0 | 0.0 | 0.00 | 0.15 | 0.00 | 80 | 1022.1 |
| 20260901042227 | 77 | 298 | 0.0 | 0.0 | 0.00 | 0.15 | 0.00 | 80 | 1022.1 |
| 20260901042125 | 77 | 298 | 0.0 | 0.0 | 0.00 | 0.15 | 0.00 | 80 | 1022.1 |
| 20260901042025 | 77 | 298 | 0.0 | 0.0 | 0.00 | 0.15 | 0.00 | 80 | 1022.2 |
| 20260901041923 | 77 | 298 | 0.0 | 0.0 | 0.00 | 0.15 | 0.00 | 80 | 1022.1 |
| 20260901041822 | 77 | 298 | 0.0 | 0.0 | 0.00 | 0.15 | 0.00 | 80 | 1022.2 |
| 20260901041722 | 77 | 298 | 0.0 | 0.0 | 0.00 | 0.15 | 0.00 | 80 | 1022.2 |
| 20260901041618 | 77 | 298 | 0.0 | 0.0 | 0.00 | 0.15 | 0.00 | 80 | 1022.2 |
| 20260901041519 | 77 | 299 | 0.0 | 0.0 | 0.00 | 0.15 | 0.00 | 80 | 1022.2 |
| 20260901041416 | 77 | 299 | 0.0 | 0.0 | 0.00 | 0.15 | 0.00 | 80 | 1022.1 |
| 20260901041317 | 77 | 298 | 0.0 | 0.0 | 0.00 | 0.15 | 0.00 | 80 | 1022.2 |
| 20260901041214 | 77 | 298 | 0.0 | 0.0 | 0.00 | 0.15 | 0.00 | 80 | 1022.2 |
| 20260901041115 | 77 | 298 | 0.0 | 0.0 | 0.00 | 0.15 | 0.00 | 80 | 1022.3 |
| 20260901041013 | 77 | 298 | 0.0 | 0.0 | 0.00 | 0.15 | 0.00 | 80 | 1022.2 |
| 20260901040910 | 77 | 298 | 0.0 | 0.0 | 0.00 | 0.15 | 0.00 | 80 | 1022.2 |
| 20260901040811 | 77 | 298 | 0.0 | 0.0 | 0.00 | 0.15 | 0.00 | 80 | 1022.2 |
| 20260901040708 | 77 | 298 | 0.0 | 0.0 | 0.00 | 0.15 | 0.00 | 80 | 1022.3 |
| 20260901040610 | 77 | 298 | 0.0 | 0.0 | 0.00 | 0.15 | 0.00 | 80 | 1022.2 |
| 20260901040508 | 77 | 298 | 0.0 | 0.0 | 0.00 | 0.15 | 0.00 | 80 | 1022.2 |
| 20260901040409 | 77 | 298 | 0.0 | 0.0 | 0.00 | 0.15 | 0.00 | 80 | 1022.1 |
| 20260901040308 | 77 | 298 | 0.0 | 0.0 | 0.00 | 0.15 | 0.00 | 80 | 1022.2 |
| 20260901040209 | 77 | 298 | 0.0 | 0.0 | 0.00 | 0.15 | 0.00 | 80 | 1022.1 |
| 20260901040108 | 77 | 298 | 0.0 | 0.0 | 0.00 | 0.15 | 0.00 | 80 | 1022.1 |
| 20260901040006 | 77 | 298 | 0.0 | 0.0 | 0.00 | 0.15 | 0.00 | 80 | 1022.2 |
| 20260901035907 | 77 | 298 | 0.0 | 0.0 | 0.00 | 0.15 | 0.15 | 80 | 1022.2 |
| 20260901035803 | 77 | 298 | 0.0 | 0.0 | 0.00 | 0.15 | 0.15 | 80 | 1022.2 |
| 20260901035703 | 77 | 298 | 0.0 | 0.0 | 0.00 | 0.15 | 0.15 | 80 | 1022.1 |
| 20260901035603 | 77 | 298 | 0.0 | 0.0 | 0.00 | 0.15 | 0.15 | 81 | 1022.1 |
| 20260901035503 | 77 | 298 | 0.0 | 0.0 | 0.00 | 0.15 | 0.15 | 81 | 1022.1 |
| 20260901035403 | 77 | 298 | 0.0 | 0.0 | 0.00 | 0.15 | 0.15 | 81 | 1022.2 |
| 20260901035305 | 77 | 298 | 0.0 | 0.0 | 0.00 | 0.15 | 0.15 | 81 | 1022.2 |
| 20260901035203 | 77 | 298 | 0.0 | 0.0 | 0.00 | 0.15 | 0.15 | 81 | 1022.1 |
| 20260901035103 | 77 | 298 | 0.0 | 0.0 | 0.00 | 0.15 | 0.15 | 81 | 1022.2 |
| 20260901035004 | 77 | 298 | 0.0 | 0.0 | 0.00 | 0.15 | 0.15 | 80 | 1022.2 |
| 20260901034902 | 77 | 298 | 0.0 | 0.0 | 0.00 | 0.15 | 0.15 | 81 | 1022.1 |
| 20260901034802 | 77 | 298 | 0.0 | 0.0 | 0.00 | 0.15 | 0.15 | 81 | 1022.2 |
| 20260901034703 | 77 | 297 | 0.0 | 0.0 | 0.00 | 0.15 | 0.15 | 81 | 1022.1 |
| 20260901034601 | 77 | 298 | 0.0 | 0.0 | 0.00 | 0.15 | 0.15 | 81 | 1022.2 |
| 20260901034502 | 77 | 297 | 0.0 | 0.0 | 0.00 | 0.15 | 0.15 | 81 | 1022.2 |